Time,TemperatureF,DewpointF,PressureIn,WindDirection,WindDirectionDegrees,WindSpeedMPH,WindSpeedGustMPH,Humidity,HourlyPrecipIn,Conditions,Clouds,dailyrainin,SolarRadiationWatts/m^2,SoftwareType,DateUTC
2013-05-31 00:00:00,72.9,65.3,30.07,SW,232,3.0,6.0,77,0.00,,BKN250,0.00,0.00,VWS V14.01,2013-05-31 04:00:00,
2013-05-31 00:01:00,72.9,65.3,30.07,SW,223,2.0,4.0,77,0.00,,FEW250,0.00,0.00,VWS V14.01,2013-05-31 04:01:00,
2013-05-31 00:05:00,73.0,65.4,30.07,SSW,212,1.0,5.0,77,0.00,,BKN250,0.00,0.00,VWS V14.01,2013-05-31 04:05:00,
2013-05-31 00:06:00,73.0,65.4,30.07,SSW,213,1.0,5.0,77,0.00,,FEW250,0.00,0.00,VWS V14.01,2013-05-31 04:06:00,
2013-05-31 00:10:00,72.8,65.6,30.07,SSW,212,1.0,3.0,78,0.00,,BKN250,0.00,0.00,VWS V14.01,2013-05-31 04:10:00,
2013-05-31 00:11:00,72.9,65.7,30.07,SSW,212,1.0,3.0,78,0.00,,FEW250,0.00,0.00,VWS V14.01,2013-05-31 04:11:00,
2013-05-31 00:15:00,72.5,65.3,30.07,SSW,212,0.0,2.0,78,0.00,,BKN250,0.00,0.00,VWS V14.01,2013-05-31 04:15:00,
2013-05-31 00:16:00,72.6,65.3,30.07,SSW,212,0.0,2.0,78,0.00,,FEW250,0.00,0.00,VWS V14.01,2013-05-31 04:16:00,
2013-05-31 00:20:00,72.1,65.2,30.07,SSW,212,2.0,3.0,79,0.00,,BKN250,0.00,0.00,VWS V14.01,2013-05-31 04:20:00,
2013-05-31 00:21:00,72.3,65.4,30.07,SSW,212,0.0,2.0,79,0.00,,FEW250,0.00,0.00,VWS V14.01,2013-05-31 04:21:00,
2013-05-31 00:25:00,72.1,65.2,30.06,SW,216,1.0,3.0,79,0.00,,BKN250,0.00,0.00,VWS V14.01,2013-05-31 04:25:00,
2013-05-31 00:26:00,72.1,65.2,30.07,SW,216,1.0,3.0,79,0.00,,FEW250,0.00,0.00,VWS V14.01,2013-05-31 04:26:00,
2013-05-31 00:30:00,72.2,65.3,30.07,SSW,207,2.0,6.0,79,0.00,,BKN250,0.00,0.00,VWS V14.01,2013-05-31 04:30:00,
2013-05-31 00:31:00,72.1,64.9,30.07,SSW,208,4.0,6.0,78,0.00,,FEW250,0.00,0.00,VWS V14.01,2013-05-31 04:31:00,
2013-05-31 00:35:00,72.2,65.0,30.07,SSW,199,2.0,5.0,78,0.00,,BKN250,0.00,0.00,VWS V14.01,2013-05-31 04:35:00,
2013-05-31 00:36:00,72.2,65.0,30.07,SSW,205,2.0,5.0,78,0.00,,FEW250,0.00,0.00,VWS V14.01,2013-05-31 04:36:00,
2013-05-31 00:40:00,72.3,65.1,30.07,SSW,206,2.0,5.0,78,0.00,,BKN250,0.00,0.00,VWS V14.01,2013-05-31 04:40:00,
2013-05-31 00:41:00,72.3,65.1,30.07,SSW,206,2.0,5.0,78,0.00,,FEW250,0.00,0.00,VWS V14.01,2013-05-31 04:41:00,
2013-05-31 00:45:00,72.3,65.1,30.07,WSW,244,2.0,4.0,78,0.00,,BKN250,0.00,0.00,VWS V14.01,2013-05-31 04:45:00,
2013-05-31 00:46:00,72.3,65.1,30.07,SSW,207,3.0,4.0,78,0.00,,FEW250,0.00,0.00,VWS V14.01,2013-05-31 04:46:00,
2013-05-31 00:50:00,72.2,65.0,30.07,SSW,205,5.0,5.0,78,0.00,,BKN250,0.00,0.00,VWS V14.01,2013-05-31 04:50:00,
2013-05-31 00:51:00,72.2,65.0,30.07,SSW,207,4.0,5.0,78,0.00,,FEW250,0.00,0.00,VWS V14.01,2013-05-31 04:51:00,
2013-05-31 00:55:00,72.2,65.3,30.07,SSW,209,3.0,5.0,79,0.00,,BKN250,0.00,0.00,VWS V14.01,2013-05-31 04:55:00,
2013-05-31 00:56:00,72.2,65.0,30.07,SW,221,3.0,5.0,78,0.00,,FEW250,0.00,0.00,VWS V14.01,2013-05-31 04:56:00,
2013-05-31 01:00:00,72.1,65.2,30.08,SW,217,2.0,5.0,79,0.00,,BKN250,0.00,0.00,VWS V14.01,2013-05-31 05:00:00,
2013-05-31 01:01:00,72.2,65.3,30.07,SSW,211,3.0,5.0,79,0.00,,FEW250,0.00,0.00,VWS V14.01,2013-05-31 05:01:00,
2013-05-31 01:05:00,72.0,65.1,30.08,SW,215,1.0,3.0,79,0.00,,BKN250,0.00,0.00,VWS V14.01,2013-05-31 05:05:00,
2013-05-31 01:06:00,72.0,65.1,30.08,SW,217,1.0,3.0,79,0.00,,FEW250,0.00,0.00,VWS V14.01,2013-05-31 05:06:00,
2013-05-31 01:10:00,71.8,65.3,30.08,SW,215,1.0,3.0,80,0.00,,BKN250,0.00,0.00,VWS V14.01,2013-05-31 05:10:00,
2013-05-31 01:11:00,71.9,65.0,30.08,SW,215,1.0,3.0,79,0.00,,FEW250,0.00,0.00,VWS V14.01,2013-05-31 05:11:00,
2013-05-31 01:15:00,71.6,65.1,30.08,SW,214,0.0,2.0,80,0.00,,BKN250,0.00,0.00,VWS V14.01,2013-05-31 05:15:00,
2013-05-31 01:16:00,71.7,65.2,30.08,SW,214,0.0,2.0,80,0.00,,FEW250,0.00,0.00,VWS V14.01,2013-05-31 05:16:00,
2013-05-31 01:20:00,71.4,65.3,30.08,SW,214,0.0,1.0,81,0.00,,BKN250,0.00,0.00,VWS V14.01,2013-05-31 05:20:00,
2013-05-31 01:21:00,71.5,65.0,30.08,SW,214,1.0,1.0,80,0.00,,FEW250,0.00,0.00,VWS V14.01,2013-05-31 05:21:00,
2013-05-31 01:25:00,71.3,65.2,30.08,SW,214,0.0,1.0,81,0.00,,BKN250,0.00,0.00,VWS V14.01,2013-05-31 05:25:00,
2013-05-31 01:26:00,71.3,65.2,30.08,SW,214,0.0,1.0,81,0.00,,FEW250,0.00,0.00,VWS V14.01,2013-05-31 05:26:00,
2013-05-31 01:30:00,71.1,65.3,30.08,SW,214,0.0,1.0,82,0.00,,BKN250,0.00,0.00,VWS V14.01,2013-05-31 05:30:00,
2013-05-31 01:31:00,71.2,65.1,30.08,SW,214,0.0,1.0,81,0.00,,FEW250,0.00,0.00,VWS V14.01,2013-05-31 05:31:00,
2013-05-31 01:35:00,71.1,65.3,30.08,SW,214,0.0,0.0,82,0.00,,BKN250,0.00,0.00,VWS V14.01,2013-05-31 05:35:00,
2013-05-31 01:36:00,71.1,65.3,30.08,SW,214,0.0,0.0,82,0.00,,CLR,0.00,0.00,VWS V14.01,2013-05-31 05:36:00,
2013-05-31 01:40:00,71.0,65.2,30.08,SW,214,0.0,0.0,82,0.00,,BKN250,0.00,0.00,VWS V14.01,2013-05-31 05:40:00,
2013-05-31 01:41:00,71.0,65.2,30.08,SW,215,0.0,0.0,82,0.00,,CLR,0.00,0.00,VWS V14.01,2013-05-31 05:41:00,
2013-05-31 01:45:00,70.9,65.1,30.07,SW,214,0.0,0.0,82,0.00,,BKN250,0.00,0.00,VWS V14.01,2013-05-31 05:45:00,
2013-05-31 01:46:00,70.9,65.1,30.07,SW,214,0.0,0.0,82,0.00,,CLR,0.00,0.00,VWS V14.01,2013-05-31 05:46:00,
2013-05-31 01:50:00,70.7,65.3,30.08,SW,214,0.0,0.0,83,0.00,,BKN250,0.00,0.00,VWS V14.01,2013-05-31 05:50:00,
2013-05-31 01:51:00,70.8,65.4,30.07,SW,214,0.0,0.0,83,0.00,,CLR,0.00,0.00,VWS V14.01,2013-05-31 05:51:00,
2013-05-31 01:55:00,70.5,65.1,30.08,SW,214,0.0,0.0,83,0.00,,BKN250,0.00,0.00,VWS V14.01,2013-05-31 05:55:00,
2013-05-31 01:56:00,70.6,65.2,30.07,SW,214,0.0,0.0,83,0.00,,CLR,0.00,0.00,VWS V14.01,2013-05-31 05:56:00,
2013-05-31 02:00:00,70.4,65.0,30.07,SW,214,0.0,0.0,83,0.00,,BKN250,0.00,0.00,VWS V14.01,2013-05-31 06:00:00,
2013-05-31 02:01:00,70.5,65.1,30.08,SW,214,0.0,0.0,83,0.00,,CLR,0.00,0.00,VWS V14.01,2013-05-31 06:01:00,
2013-05-31 02:05:00,70.4,65.3,30.08,SW,214,0.0,0.0,84,0.00,,BKN250,0.00,0.00,VWS V14.01,2013-05-31 06:05:00,
2013-05-31 02:06:00,70.4,65.3,30.08,SW,214,0.0,0.0,84,0.00,,CLR,0.00,0.00,VWS V14.01,2013-05-31 06:06:00,
2013-05-31 02:10:00,70.4,65.3,30.07,SW,214,0.0,0.0,84,0.00,,BKN250,0.00,0.00,VWS V14.01,2013-05-31 06:10:00,
2013-05-31 02:11:00,70.4,65.3,30.08,SW,214,0.0,0.0,84,0.00,,CLR,0.00,0.00,VWS V14.01,2013-05-31 06:11:00,
2013-05-31 02:15:00,70.3,65.6,30.07,SW,214,0.0,2.0,85,0.00,,BKN250,0.00,0.00,VWS V14.01,2013-05-31 06:15:00,
2013-05-31 02:16:00,70.4,65.7,30.07,SW,214,2.0,2.0,85,0.00,,CLR,0.00,0.00,VWS V14.01,2013-05-31 06:16:00,
2013-05-31 02:20:00,70.4,65.7,30.07,SW,214,0.0,2.0,85,0.00,,BKN250,0.00,0.00,VWS V14.01,2013-05-31 06:20:00,
2013-05-31 02:21:00,70.4,65.7,30.07,SW,214,0.0,2.0,85,0.00,,CLR,0.00,0.00,VWS V14.01,2013-05-31 06:21:00,
2013-05-31 02:25:00,70.4,65.7,30.08,SW,214,0.0,0.0,85,0.00,,BKN250,0.00,0.00,VWS V14.01,2013-05-31 06:25:00,
2013-05-31 02:26:00,70.4,65.7,30.07,SW,214,0.0,0.0,85,0.00,,CLR,0.00,0.00,VWS V14.01,2013-05-31 06:26:00,
2013-05-31 02:30:00,70.4,65.7,30.08,SW,214,0.0,0.0,85,0.00,,BKN250,0.00,0.00,VWS V14.01,2013-05-31 06:30:00,
2013-05-31 02:31:00,70.4,65.7,30.08,SW,214,0.0,0.0,85,0.00,,CLR,0.00,0.00,VWS V14.01,2013-05-31 06:31:00,
2013-05-31 02:35:00,70.4,65.7,30.08,SW,214,0.0,0.0,85,0.00,,BKN250,0.00,0.00,VWS V14.01,2013-05-31 06:35:00,
2013-05-31 02:36:00,70.4,65.7,30.08,SW,214,0.0,0.0,85,0.00,,CLR,0.00,0.00,VWS V14.01,2013-05-31 06:36:00,
2013-05-31 02:40:00,70.4,65.7,30.08,SW,214,0.0,0.0,85,0.00,,BKN250,0.00,0.00,VWS V14.01,2013-05-31 06:40:00,
2013-05-31 02:41:00,70.4,65.7,30.08,SW,214,0.0,0.0,85,0.00,,CLR,0.00,0.00,VWS V14.01,2013-05-31 06:41:00,
2013-05-31 02:45:00,70.4,65.7,30.07,SW,214,0.0,0.0,85,0.00,,BKN250,0.00,0.00,VWS V14.01,2013-05-31 06:45:00,
2013-05-31 02:46:00,70.4,65.7,30.07,SW,214,0.0,0.0,85,0.00,,CLR,0.00,0.00,VWS V14.01,2013-05-31 06:46:00,
2013-05-31 02:50:00,70.4,65.7,30.07,SW,214,0.0,0.0,85,0.00,,BKN250,0.00,0.00,VWS V14.01,2013-05-31 06:50:00,
2013-05-31 02:51:00,70.4,65.7,30.07,SW,214,0.0,0.0,85,0.00,,CLR,0.00,0.00,VWS V14.01,2013-05-31 06:51:00,
2013-05-31 02:55:00,70.3,65.9,30.07,SW,214,0.0,0.0,86,0.00,,BKN250,0.00,0.00,VWS V14.01,2013-05-31 06:55:00,
2013-05-31 02:56:00,70.4,66.0,30.07,SW,214,0.0,0.0,86,0.00,,CLR,0.00,0.00,VWS V14.01,2013-05-31 06:56:00,
2013-05-31 03:00:00,70.2,65.8,30.07,SW,214,0.0,0.0,86,0.00,,BKN250,0.00,0.00,VWS V14.01,2013-05-31 07:00:00,
2013-05-31 03:01:00,70.2,65.8,30.07,SW,214,0.0,0.0,86,0.00,,CLR,0.00,0.00,VWS V14.01,2013-05-31 07:01:00,
2013-05-31 03:05:00,70.2,66.2,30.07,SW,214,0.0,2.0,87,0.00,,BKN250,0.00,0.00,VWS V14.01,2013-05-31 07:05:00,
2013-05-31 03:06:00,70.2,65.8,30.07,SW,214,1.0,2.0,86,0.00,,CLR,0.00,0.00,VWS V14.01,2013-05-31 07:06:00,
2013-05-31 03:10:00,70.2,66.2,30.07,SW,215,0.0,2.0,87,0.00,,BKN250,0.00,0.00,VWS V14.01,2013-05-31 07:10:00,
2013-05-31 03:11:00,70.2,66.2,30.07,SW,214,0.0,0.0,87,0.00,,CLR,0.00,0.00,VWS V14.01,2013-05-31 07:11:00,
2013-05-31 03:15:00,70.2,66.2,30.07,SW,215,0.0,0.0,87,0.00,,BKN250,0.00,0.00,VWS V14.01,2013-05-31 07:15:00,
2013-05-31 03:16:00,70.3,66.2,30.07,SW,214,0.0,0.0,87,0.00,,CLR,0.00,0.00,VWS V14.01,2013-05-31 07:16:00,
2013-05-31 03:20:00,70.2,66.2,30.08,SW,215,0.0,1.0,87,0.00,,BKN250,0.00,0.00,VWS V14.01,2013-05-31 07:20:00,
2013-05-31 03:21:00,70.2,66.2,30.07,SW,215,0.0,0.0,87,0.00,,CLR,0.00,0.00,VWS V14.01,2013-05-31 07:21:00,
2013-05-31 03:25:00,70.2,66.2,30.07,SW,215,0.0,1.0,87,0.00,,BKN250,0.00,0.00,VWS V14.01,2013-05-31 07:25:00,
2013-05-31 03:26:00,70.2,66.2,30.07,SW,215,0.0,0.0,87,0.00,,CLR,0.00,0.00,VWS V14.01,2013-05-31 07:26:00,
2013-05-31 03:30:00,70.2,66.2,30.07,SW,215,0.0,0.0,87,0.00,,BKN250,0.00,0.00,VWS V14.01,2013-05-31 07:30:00,
2013-05-31 03:31:00,70.2,66.2,30.07,SW,215,0.0,0.0,87,0.00,,CLR,0.00,0.00,VWS V14.01,2013-05-31 07:31:00,
2013-05-31 03:35:00,70.2,66.2,30.07,SW,215,0.0,0.0,87,0.00,,BKN250,0.00,0.00,VWS V14.01,2013-05-31 07:35:00,
2013-05-31 03:36:00,70.1,66.1,30.07,SW,215,0.0,0.0,87,0.00,,CLR,0.00,0.00,VWS V14.01,2013-05-31 07:36:00,
2013-05-31 03:40:00,70.1,66.1,30.07,SW,214,0.0,0.0,87,0.00,,BKN250,0.00,0.00,VWS V14.01,2013-05-31 07:40:00,
2013-05-31 03:41:00,70.1,66.1,30.07,SW,215,0.0,0.0,87,0.00,,CLR,0.00,0.00,VWS V14.01,2013-05-31 07:41:00,
2013-05-31 03:45:00,70.0,66.0,30.07,SW,215,0.0,0.0,87,0.00,,BKN250,0.00,0.00,VWS V14.01,2013-05-31 07:45:00,
2013-05-31 03:46:00,70.1,66.1,30.07,SW,215,0.0,0.0,87,0.00,,CLR,0.00,0.00,VWS V14.01,2013-05-31 07:46:00,
2013-05-31 03:50:00,69.9,65.9,30.07,SW,214,0.0,0.0,87,0.00,,BKN250,0.00,0.00,VWS V14.01,2013-05-31 07:50:00,
2013-05-31 03:51:00,70.0,66.0,30.07,SW,215,0.0,0.0,87,0.00,,CLR,0.00,0.00,VWS V14.01,2013-05-31 07:51:00,
2013-05-31 03:55:00,69.9,66.2,30.07,SW,215,0.0,0.0,88,0.00,,BKN250,0.00,0.00,VWS V14.01,2013-05-31 07:55:00,
2013-05-31 03:56:00,69.9,65.9,30.07,SW,215,0.0,0.0,87,0.00,,CLR,0.00,0.00,VWS V14.01,2013-05-31 07:56:00,
2013-05-31 04:00:00,69.8,66.1,30.07,SW,215,0.0,0.0,88,0.00,,BKN250,0.00,0.00,VWS V14.01,2013-05-31 08:00:00,
2013-05-31 04:01:00,69.8,66.1,30.07,SW,214,0.0,0.0,88,0.00,,CLR,0.00,0.00,VWS V14.01,2013-05-31 08:01:00,
2013-05-31 04:05:00,69.7,66.0,30.07,SW,215,0.0,0.0,88,0.00,,BKN250,0.00,0.00,VWS V14.01,2013-05-31 08:05:00,
2013-05-31 04:06:00,69.7,66.0,30.07,SW,214,0.0,0.0,88,0.00,,CLR,0.00,0.00,VWS V14.01,2013-05-31 08:06:00,
2013-05-31 04:10:00,69.6,65.9,30.08,SW,215,0.0,0.0,88,0.00,,BKN250,0.00,0.00,VWS V14.01,2013-05-31 08:10:00,
2013-05-31 04:11:00,69.6,65.9,30.08,SW,215,0.0,0.0,88,0.00,,CLR,0.00,0.00,VWS V14.01,2013-05-31 08:11:00,
2013-05-31 04:15:00,69.6,65.9,30.08,SW,215,0.0,0.0,88,0.00,,BKN250,0.00,0.00,VWS V14.01,2013-05-31 08:15:00,
2013-05-31 04:16:00,69.6,65.9,30.08,SW,215,0.0,0.0,88,0.00,,CLR,0.00,0.00,VWS V14.01,2013-05-31 08:16:00,
2013-05-31 04:20:00,69.5,65.8,30.08,SW,214,0.0,0.0,88,0.00,,BKN250,0.00,0.00,VWS V14.01,2013-05-31 08:20:00,
2013-05-31 04:21:00,69.5,65.8,30.07,SW,215,0.0,0.0,88,0.00,,CLR,0.00,0.00,VWS V14.01,2013-05-31 08:21:00,
2013-05-31 04:25:00,69.4,65.7,30.07,SW,215,0.0,0.0,88,0.00,,BKN250,0.00,0.00,VWS V14.01,2013-05-31 08:25:00,
2013-05-31 04:26:00,69.5,65.8,30.07,SW,214,0.0,0.0,88,0.00,,CLR,0.00,0.00,VWS V14.01,2013-05-31 08:26:00,
2013-05-31 04:30:00,69.3,65.9,30.08,SW,214,0.0,0.0,89,0.00,,BKN250,0.00,0.00,VWS V14.01,2013-05-31 08:30:00,
2013-05-31 04:31:00,69.4,66.0,30.08,SW,215,0.0,0.0,89,0.00,,CLR,0.00,0.00,VWS V14.01,2013-05-31 08:31:00,
2013-05-31 04:35:00,69.2,65.8,30.08,SW,215,0.0,0.0,89,0.00,,BKN250,0.00,0.00,VWS V14.01,2013-05-31 08:35:00,
2013-05-31 04:36:00,69.2,65.8,30.08,SW,215,0.0,0.0,89,0.00,,CLR,0.00,0.00,VWS V14.01,2013-05-31 08:36:00,
2013-05-31 04:40:00,69.1,65.7,30.07,SW,215,0.0,0.0,89,0.00,,BKN250,0.00,0.00,VWS V14.01,2013-05-31 08:40:00,
2013-05-31 04:41:00,69.2,65.8,30.08,SW,215,0.0,0.0,89,0.00,,CLR,0.00,0.00,VWS V14.01,2013-05-31 08:41:00,
2013-05-31 04:45:00,69.1,65.7,30.07,SW,214,0.0,0.0,89,0.00,,BKN250,0.00,0.00,VWS V14.01,2013-05-31 08:45:00,
2013-05-31 04:46:00,69.1,65.7,30.07,SW,215,0.0,0.0,89,0.00,,CLR,0.00,0.00,VWS V14.01,2013-05-31 08:46:00,
2013-05-31 04:50:00,69.0,65.6,30.08,SW,214,0.0,0.0,89,0.00,,BKN250,0.00,0.00,VWS V14.01,2013-05-31 08:50:00,
2013-05-31 04:51:00,69.1,65.7,30.08,SW,215,0.0,0.0,89,0.00,,CLR,0.00,0.00,VWS V14.01,2013-05-31 08:51:00,
2013-05-31 04:55:00,68.9,65.8,30.07,SW,214,0.0,0.0,90,0.00,,BKN250,0.00,0.00,VWS V14.01,2013-05-31 08:55:00,
2013-05-31 04:56:00,69.0,65.6,30.07,SW,214,0.0,0.0,89,0.00,,CLR,0.00,0.00,VWS V14.01,2013-05-31 08:56:00,
2013-05-31 05:00:00,68.8,65.8,30.08,SW,214,0.0,0.0,90,0.00,,BKN250,0.00,0.00,VWS V14.01,2013-05-31 09:00:00,
2013-05-31 05:01:00,68.9,65.8,30.07,SW,215,0.0,0.0,90,0.00,,CLR,0.00,0.00,VWS V14.01,2013-05-31 09:01:00,
2013-05-31 05:05:00,68.8,65.8,30.08,SW,214,0.0,0.0,90,0.00,,BKN250,0.00,0.00,VWS V14.01,2013-05-31 09:05:00,
2013-05-31 05:06:00,68.8,65.8,30.08,SW,215,0.0,0.0,90,0.00,,CLR,0.00,0.00,VWS V14.01,2013-05-31 09:06:00,
2013-05-31 05:10:00,68.8,65.8,30.08,SW,215,0.0,0.0,90,0.00,,BKN250,0.00,0.00,VWS V14.01,2013-05-31 09:10:00,
2013-05-31 05:11:00,68.8,65.8,30.08,SW,215,0.0,0.0,90,0.00,,CLR,0.00,0.00,VWS V14.01,2013-05-31 09:11:00,
2013-05-31 05:15:00,68.6,65.6,30.08,SW,215,0.0,0.0,90,0.00,,BKN250,0.00,0.00,VWS V14.01,2013-05-31 09:15:00,
2013-05-31 05:16:00,68.7,65.7,30.08,SW,214,0.0,0.0,90,0.00,,CLR,0.00,0.00,VWS V14.01,2013-05-31 09:16:00,
2013-05-31 05:20:00,68.5,65.8,30.08,SW,215,0.0,0.0,91,0.00,,BKN250,0.00,0.00,VWS V14.01,2013-05-31 09:20:00,
2013-05-31 05:21:00,68.6,65.9,30.08,SW,214,0.0,0.0,91,0.00,,CLR,0.00,0.00,VWS V14.01,2013-05-31 09:21:00,
2013-05-31 05:25:00,68.5,65.8,30.08,SW,215,0.0,0.0,91,0.00,,BKN250,0.00,5.00,VWS V14.01,2013-05-31 09:25:00,
2013-05-31 05:26:00,68.5,65.8,30.08,SW,215,0.0,0.0,91,0.00,,CLR,0.00,0.00,VWS V14.01,2013-05-31 09:26:00,
2013-05-31 05:30:00,68.4,65.7,30.08,SW,215,0.0,0.0,91,0.00,,BKN250,0.00,7.00,VWS V14.01,2013-05-31 09:30:00,
2013-05-31 05:31:00,68.4,65.7,30.08,SW,215,0.0,0.0,91,0.00,,CLR,0.00,5.00,VWS V14.01,2013-05-31 09:31:00,
2013-05-31 05:35:00,68.4,65.7,30.08,SW,214,0.0,0.0,91,0.00,,BKN250,0.00,11.00,VWS V14.01,2013-05-31 09:35:00,
2013-05-31 05:36:00,68.4,65.7,30.08,SW,214,0.0,0.0,91,0.00,,CLR,0.00,9.00,VWS V14.01,2013-05-31 09:36:00,
2013-05-31 05:40:00,68.4,65.7,30.08,SW,215,0.0,0.0,91,0.00,,BKN250,0.00,16.00,VWS V14.01,2013-05-31 09:40:00,
2013-05-31 05:41:00,68.4,65.7,30.08,SW,214,0.0,0.0,91,0.00,,CLR,0.00,12.00,VWS V14.01,2013-05-31 09:41:00,
2013-05-31 05:45:00,68.3,65.6,30.08,SW,215,0.0,0.0,91,0.00,,BKN250,0.00,18.00,VWS V14.01,2013-05-31 09:45:00,
2013-05-31 05:46:00,68.3,65.6,30.08,SW,214,0.0,0.0,91,0.00,,CLR,0.00,16.00,VWS V14.01,2013-05-31 09:46:00,
2013-05-31 05:50:00,68.3,65.9,30.08,SW,215,0.0,0.0,92,0.00,,BKN250,0.00,23.00,VWS V14.01,2013-05-31 09:50:00,
2013-05-31 05:51:00,68.3,65.9,30.08,SW,215,0.0,0.0,92,0.00,,CLR,0.00,21.00,VWS V14.01,2013-05-31 09:51:00,
2013-05-31 05:55:00,68.4,66.0,30.08,SW,215,0.0,0.0,92,0.00,,BKN250,0.00,28.00,VWS V14.01,2013-05-31 09:55:00,
2013-05-31 05:56:00,68.4,66.0,30.08,SW,214,0.0,0.0,92,0.00,,CLR,0.00,25.00,VWS V14.01,2013-05-31 09:56:00,
2013-05-31 06:00:00,68.5,66.1,30.08,SW,214,0.0,0.0,92,0.00,,BKN250,0.00,35.00,VWS V14.01,2013-05-31 10:00:00,
2013-05-31 06:01:00,68.4,66.0,30.08,SW,214,0.0,0.0,92,0.00,,CLR,0.00,32.00,VWS V14.01,2013-05-31 10:01:00,
2013-05-31 06:05:00,68.6,66.2,30.08,SW,215,0.0,0.0,92,0.00,,BKN250,0.00,40.00,VWS V14.01,2013-05-31 10:05:00,
2013-05-31 06:06:00,68.5,66.1,30.08,SW,215,0.0,0.0,92,0.00,,CLR,0.00,39.00,VWS V14.01,2013-05-31 10:06:00,
2013-05-31 06:10:00,68.8,66.4,30.09,SW,214,0.0,0.0,92,0.00,,BKN250,0.00,47.00,VWS V14.01,2013-05-31 10:10:00,
2013-05-31 06:11:00,68.6,66.2,30.09,SW,215,0.0,0.0,92,0.00,,CLR,0.00,44.00,VWS V14.01,2013-05-31 10:11:00,
2013-05-31 06:15:00,68.9,66.5,30.09,SW,214,0.0,0.0,92,0.00,,BKN250,0.00,58.00,VWS V14.01,2013-05-31 10:15:00,
2013-05-31 06:16:00,68.8,66.4,30.09,SW,214,0.0,0.0,92,0.00,,CLR,0.00,51.00,VWS V14.01,2013-05-31 10:16:00,
2013-05-31 06:20:00,69.2,66.8,30.09,SW,215,0.0,0.0,92,0.00,,BKN250,0.00,67.00,VWS V14.01,2013-05-31 10:20:00,
2013-05-31 06:21:00,69.0,66.3,30.09,SW,215,0.0,0.0,91,0.00,,CLR,0.00,62.00,VWS V14.01,2013-05-31 10:21:00,
2013-05-31 06:25:00,69.4,66.7,30.09,SW,214,0.0,0.0,91,0.00,,BKN250,0.00,79.00,VWS V14.01,2013-05-31 10:25:00,
2013-05-31 06:26:00,69.2,66.5,30.09,SW,215,0.0,0.0,91,0.00,,CLR,0.00,70.00,VWS V14.01,2013-05-31 10:26:00,
2013-05-31 06:30:00,69.6,66.9,30.10,SW,214,0.0,0.0,91,0.00,,BKN250,0.00,91.00,VWS V14.01,2013-05-31 10:30:00,
2013-05-31 06:31:00,69.5,66.8,30.10,SW,214,0.0,0.0,91,0.00,,CLR,0.00,84.00,VWS V14.01,2013-05-31 10:31:00,
2013-05-31 06:35:00,70.1,67.0,30.10,SW,215,0.0,0.0,90,0.00,,BKN250,0.00,104.00,VWS V14.01,2013-05-31 10:35:00,
2013-05-31 06:36:00,69.6,66.9,30.10,SW,214,0.0,0.0,91,0.00,,FEW250,0.00,91.00,VWS V14.01,2013-05-31 10:36:00,
2013-05-31 06:40:00,70.6,67.2,30.10,SW,215,0.0,0.0,89,0.00,,BKN250,0.00,114.00,VWS V14.01,2013-05-31 10:40:00,
2013-05-31 06:41:00,70.4,67.0,30.10,SW,215,0.0,0.0,89,0.00,,FEW250,0.00,111.00,VWS V14.01,2013-05-31 10:41:00,
2013-05-31 06:45:00,71.0,67.6,30.10,SW,214,0.0,0.0,89,0.00,,BKN250,0.00,130.00,VWS V14.01,2013-05-31 10:45:00,
2013-05-31 06:46:00,70.8,67.4,30.10,SW,215,0.0,0.0,89,0.00,,FEW250,0.00,123.00,VWS V14.01,2013-05-31 10:46:00,
2013-05-31 06:50:00,71.3,67.9,30.10,SW,214,0.0,0.0,89,0.00,,BKN250,0.00,144.00,VWS V14.01,2013-05-31 10:50:00,
2013-05-31 06:51:00,71.1,67.7,30.10,SW,215,0.0,0.0,89,0.00,,FEW250,0.00,135.00,VWS V14.01,2013-05-31 10:51:00,
2013-05-31 06:55:00,71.7,68.3,30.10,SW,214,0.0,0.0,89,0.00,,BKN250,0.00,156.00,VWS V14.01,2013-05-31 10:55:00,
2013-05-31 06:56:00,71.5,68.1,30.10,SW,215,0.0,0.0,89,0.00,,FEW250,0.00,149.00,VWS V14.01,2013-05-31 10:56:00,
2013-05-31 07:00:00,72.1,68.7,30.10,SW,215,0.0,0.0,89,0.00,,BKN250,0.00,172.00,VWS V14.01,2013-05-31 11:00:00,
2013-05-31 07:01:00,71.9,68.5,30.10,SW,215,0.0,0.0,89,0.00,,FEW250,0.00,163.00,VWS V14.01,2013-05-31 11:01:00,
2013-05-31 07:05:00,72.8,68.7,30.10,SW,215,0.0,0.0,87,0.00,,BKN250,0.00,186.00,VWS V14.01,2013-05-31 11:05:00,
2013-05-31 07:06:00,72.4,68.7,30.10,SW,214,0.0,0.0,88,0.00,,FEW250,0.00,179.00,VWS V14.01,2013-05-31 11:06:00,
2013-05-31 07:10:00,73.3,69.2,30.10,SW,215,0.0,0.0,87,0.00,,BKN250,0.00,202.00,VWS V14.01,2013-05-31 11:10:00,
2013-05-31 07:11:00,73.0,68.9,30.10,SW,215,0.0,0.0,87,0.00,,FEW250,0.00,195.00,VWS V14.01,2013-05-31 11:11:00,
2013-05-31 07:15:00,73.8,69.4,30.10,SW,215,0.0,0.0,86,0.00,,BKN250,0.00,214.00,VWS V14.01,2013-05-31 11:15:00,
2013-05-31 07:16:00,73.5,69.1,30.10,SW,214,0.0,0.0,86,0.00,,FEW250,0.00,207.00,VWS V14.01,2013-05-31 11:16:00,
2013-05-31 07:20:00,74.3,69.8,30.10,SW,215,0.0,0.0,86,0.00,,BKN250,0.00,230.00,VWS V14.01,2013-05-31 11:20:00,
2013-05-31 07:21:00,74.0,69.6,30.10,SW,214,0.0,0.0,86,0.00,,FEW250,0.00,223.00,VWS V14.01,2013-05-31 11:21:00,
2013-05-31 07:25:00,74.9,70.1,30.10,SW,215,0.0,0.0,85,0.00,,BKN250,0.00,246.00,VWS V14.01,2013-05-31 11:25:00,
2013-05-31 07:26:00,74.6,70.1,30.10,SW,215,0.0,0.0,86,0.00,,FEW250,0.00,236.00,VWS V14.01,2013-05-31 11:26:00,
2013-05-31 07:30:00,75.5,70.3,30.10,SW,214,0.0,1.0,84,0.00,,BKN250,0.00,255.00,VWS V14.01,2013-05-31 11:30:00,
2013-05-31 07:31:00,75.2,70.4,30.10,SW,215,0.0,1.0,85,0.00,,FEW250,0.00,248.00,VWS V14.01,2013-05-31 11:31:00,
2013-05-31 07:35:00,76.1,70.2,30.10,SW,214,0.0,0.0,82,0.00,,BKN250,0.00,271.00,VWS V14.01,2013-05-31 11:35:00,
2013-05-31 07:36:00,75.8,70.6,30.10,SW,214,0.0,0.0,84,0.00,,CLR,0.00,262.00,VWS V14.01,2013-05-31 11:36:00,
2013-05-31 07:40:00,76.8,70.5,30.10,SW,215,1.0,3.0,81,0.00,,BKN250,0.00,283.00,VWS V14.01,2013-05-31 11:40:00,
2013-05-31 07:41:00,76.5,70.6,30.10,SW,215,2.0,2.0,82,0.00,,CLR,0.00,276.00,VWS V14.01,2013-05-31 11:41:00,
2013-05-31 07:45:00,77.5,70.5,30.10,SW,234,1.0,3.0,79,0.00,,BKN250,0.00,299.00,VWS V14.01,2013-05-31 11:45:00,
2013-05-31 07:46:00,77.1,70.5,30.10,SW,215,0.0,2.0,80,0.00,,CLR,0.00,292.00,VWS V14.01,2013-05-31 11:46:00,
2013-05-31 07:50:00,78.1,70.7,30.10,SW,224,4.0,4.0,78,0.00,,BKN250,0.00,311.00,VWS V14.01,2013-05-31 11:50:00,
2013-05-31 07:51:00,77.8,70.8,30.10,WSW,244,1.0,3.0,79,0.00,,CLR,0.00,306.00,VWS V14.01,2013-05-31 11:51:00,
2013-05-31 07:55:00,78.6,70.8,30.10,WSW,239,0.0,5.0,77,0.00,,BKN250,0.00,323.00,VWS V14.01,2013-05-31 11:55:00,
2013-05-31 07:56:00,78.3,70.5,30.10,WSW,239,2.0,5.0,77,0.00,,CLR,0.00,315.00,VWS V14.01,2013-05-31 11:56:00,
2013-05-31 08:00:00,78.9,69.9,30.10,West,263,2.0,6.0,74,0.00,,BKN250,0.00,338.00,VWS V14.01,2013-05-31 12:00:00,
2013-05-31 08:01:00,78.8,70.6,30.10,WSW,247,3.0,5.0,76,0.00,,CLR,0.00,330.00,VWS V14.01,2013-05-31 12:01:00,
2013-05-31 08:05:00,79.3,70.3,30.10,WSW,250,3.0,6.0,74,0.00,,BKN250,0.00,352.00,VWS V14.01,2013-05-31 12:05:00,
2013-05-31 08:06:00,79.1,70.5,30.10,SW,221,0.0,2.0,75,0.00,,CLR,0.00,343.00,VWS V14.01,2013-05-31 12:06:00,
2013-05-31 08:10:00,79.8,70.8,30.10,WSW,238,2.0,5.0,74,0.00,,BKN250,0.00,367.00,VWS V14.01,2013-05-31 12:10:00,
2013-05-31 08:11:00,79.6,70.6,30.10,WSW,238,2.0,3.0,74,0.00,,CLR,0.00,359.00,VWS V14.01,2013-05-31 12:11:00,
2013-05-31 08:15:00,80.2,70.8,30.10,WNW,290,0.0,5.0,73,0.00,,BKN250,0.00,385.00,VWS V14.01,2013-05-31 12:15:00,
2013-05-31 08:16:00,80.0,71.0,30.10,WNW,290,1.0,5.0,74,0.00,,CLR,0.00,376.00,VWS V14.01,2013-05-31 12:16:00,
2013-05-31 08:20:00,80.7,70.4,30.10,SW,217,2.0,5.0,71,0.00,,BKN250,0.00,401.00,VWS V14.01,2013-05-31 12:20:00,
2013-05-31 08:21:00,80.5,70.7,30.10,WSW,254,2.0,4.0,72,0.00,,CLR,0.00,392.00,VWS V14.01,2013-05-31 12:21:00,
2013-05-31 08:25:00,81.0,70.7,30.10,WSW,241,4.0,5.0,71,0.00,,BKN250,0.00,415.00,VWS V14.01,2013-05-31 12:25:00,
2013-05-31 08:26:00,80.9,70.2,30.10,WNW,287,2.0,5.0,70,0.00,,CLR,0.00,406.00,VWS V14.01,2013-05-31 12:26:00,
2013-05-31 08:30:00,81.5,70.8,30.10,SW,236,2.0,4.0,70,0.00,,BKN250,0.00,427.00,VWS V14.01,2013-05-31 12:30:00,
2013-05-31 08:31:00,81.2,70.9,30.10,SW,232,2.0,4.0,71,0.00,,CLR,0.00,420.00,VWS V14.01,2013-05-31 12:31:00,
2013-05-31 08:35:00,81.8,70.6,30.10,WSW,244,3.0,4.0,69,0.00,,BKN250,0.00,441.00,VWS V14.01,2013-05-31 12:35:00,
2013-05-31 08:36:00,81.6,70.4,30.10,WNW,284,2.0,4.0,69,0.00,,CLR,0.00,431.00,VWS V14.01,2013-05-31 12:36:00,
2013-05-31 08:40:00,82.1,70.5,30.10,WSW,242,2.0,4.0,68,0.00,,BKN250,0.00,455.00,VWS V14.01,2013-05-31 12:40:00,
2013-05-31 08:41:00,81.8,70.6,30.10,WSW,244,0.0,4.0,69,0.00,,CLR,0.00,448.00,VWS V14.01,2013-05-31 12:41:00,
2013-05-31 08:45:00,82.6,70.5,30.10,West,273,2.0,6.0,67,0.00,,BKN250,0.00,468.00,VWS V14.01,2013-05-31 12:45:00,
2013-05-31 08:46:00,82.4,70.8,30.10,WSW,242,1.0,2.0,68,0.00,,CLR,0.00,462.00,VWS V14.01,2013-05-31 12:46:00,
2013-05-31 08:50:00,82.7,70.2,30.10,West,278,2.0,5.0,66,0.00,,BKN250,0.00,483.00,VWS V14.01,2013-05-31 12:50:00,
2013-05-31 08:51:00,82.7,70.6,30.10,West,278,0.0,4.0,67,0.00,,CLR,0.00,476.00,VWS V14.01,2013-05-31 12:51:00,
2013-05-31 08:55:00,82.8,69.8,30.10,West,263,3.0,6.0,65,0.00,,BKN250,0.00,496.00,VWS V14.01,2013-05-31 12:55:00,
2013-05-31 08:56:00,82.7,69.8,30.10,WNW,299,4.0,5.0,65,0.00,,CLR,0.00,492.00,VWS V14.01,2013-05-31 12:56:00,
2013-05-31 09:00:00,83.0,69.6,30.10,WSW,238,2.0,5.0,64,0.00,,BKN250,0.00,512.00,VWS V14.01,2013-05-31 13:00:00,
2013-05-31 09:01:00,82.8,69.4,30.10,West,263,1.0,4.0,64,0.00,,CLR,0.00,504.00,VWS V14.01,2013-05-31 13:01:00,
2013-05-31 09:05:00,83.2,69.3,30.10,WNW,302,2.0,7.0,63,0.00,,BKN250,0.00,522.00,VWS V14.01,2013-05-31 13:05:00,
2013-05-31 09:06:00,83.0,69.1,30.10,West,278,2.0,7.0,63,0.00,,CLR,0.00,515.00,VWS V14.01,2013-05-31 13:06:00,
2013-05-31 09:10:00,83.6,70.6,30.10,WNW,298,0.0,3.0,65,0.00,,BKN250,0.00,533.00,VWS V14.01,2013-05-31 13:10:00,
2013-05-31 09:11:00,83.3,69.9,30.10,WNW,298,0.0,3.0,64,0.00,,CLR,0.00,522.00,VWS V14.01,2013-05-31 13:11:00,
2013-05-31 09:15:00,84.1,69.7,30.10,WSW,244,2.0,5.0,62,0.00,,BKN250,0.00,548.00,VWS V14.01,2013-05-31 13:15:00,
2013-05-31 09:16:00,84.0,70.1,30.10,SW,229,4.0,5.0,63,0.00,,CLR,0.00,534.00,VWS V14.01,2013-05-31 13:16:00,
2013-05-31 09:20:00,84.3,69.9,30.09,SW,230,3.0,5.0,62,0.00,,BKN250,0.00,561.00,VWS V14.01,2013-05-31 13:20:00,
2013-05-31 09:21:00,84.2,69.8,30.10,SW,223,3.0,4.0,62,0.00,,CLR,0.00,554.00,VWS V14.01,2013-05-31 13:21:00,
2013-05-31 09:25:00,84.5,70.5,30.09,West,281,0.0,4.0,63,0.00,,BKN250,0.00,573.00,VWS V14.01,2013-05-31 13:25:00,
2013-05-31 09:26:00,84.3,69.9,30.09,West,281,2.0,4.0,62,0.00,,CLR,0.00,568.00,VWS V14.01,2013-05-31 13:26:00,
2013-05-31 09:30:00,84.7,69.8,30.09,WSW,248,2.0,5.0,61,0.00,,BKN250,0.00,589.00,VWS V14.01,2013-05-31 13:30:00,
2013-05-31 09:31:00,84.7,70.7,30.09,West,281,3.0,4.0,63,0.00,,CLR,0.00,580.00,VWS V14.01,2013-05-31 13:31:00,
2013-05-31 09:35:00,84.9,70.0,30.09,NW,313,0.0,5.0,61,0.00,,BKN250,0.00,592.00,VWS V14.01,2013-05-31 13:35:00,
2013-05-31 09:36:00,84.7,69.8,30.09,WSW,248,0.0,3.0,61,0.00,,CLR,0.00,587.00,VWS V14.01,2013-05-31 13:36:00,
2013-05-31 09:40:00,85.1,68.7,30.09,NNW,327,3.0,6.0,58,0.00,,BKN250,0.00,610.00,VWS V14.01,2013-05-31 13:40:00,
2013-05-31 09:41:00,85.1,69.2,30.09,NW,313,4.0,4.0,59,0.00,,CLR,0.00,603.00,VWS V14.01,2013-05-31 13:41:00,
2013-05-31 09:45:00,85.3,69.4,30.09,NNW,327,1.0,2.0,59,0.00,,BKN250,0.00,624.00,VWS V14.01,2013-05-31 13:45:00,
2013-05-31 09:46:00,85.1,68.7,30.09,NNW,327,1.0,1.0,58,0.00,,CLR,0.00,617.00,VWS V14.01,2013-05-31 13:46:00,
2013-05-31 09:50:00,85.7,70.7,30.09,West,259,3.0,5.0,61,0.00,,BKN250,0.00,633.00,VWS V14.01,2013-05-31 13:50:00,
2013-05-31 09:51:00,85.5,69.1,30.09,NNW,327,3.0,4.0,58,0.00,,CLR,0.00,628.00,VWS V14.01,2013-05-31 13:51:00,
2013-05-31 09:55:00,86.0,69.5,30.09,NW,317,2.0,6.0,58,0.00,,BKN250,0.00,649.00,VWS V14.01,2013-05-31 13:55:00,
2013-05-31 09:56:00,85.9,69.9,30.09,WNW,298,2.0,3.0,59,0.00,,CLR,0.00,642.00,VWS V14.01,2013-05-31 13:56:00,
2013-05-31 10:00:00,86.2,70.2,30.09,WNW,295,2.0,4.0,59,0.00,,BKN250,0.00,656.00,VWS V14.01,2013-05-31 14:00:00,
2013-05-31 10:01:00,86.0,69.5,30.09,NW,323,1.0,4.0,58,0.00,,CLR,0.00,652.00,VWS V14.01,2013-05-31 14:01:00,
2013-05-31 10:05:00,86.4,69.9,30.08,NW,309,2.0,4.0,58,0.00,,BKN250,0.00,671.00,VWS V14.01,2013-05-31 14:05:00,
2013-05-31 10:06:00,86.3,69.8,30.09,NW,311,1.0,4.0,58,0.00,,CLR,0.00,666.00,VWS V14.01,2013-05-31 14:06:00,
2013-05-31 10:10:00,87.3,71.2,30.08,WNW,300,0.0,4.0,59,0.00,,BKN250,0.00,682.00,VWS V14.01,2013-05-31 14:10:00,
2013-05-31 10:11:00,86.7,70.7,30.08,NW,317,0.0,3.0,59,0.00,,CLR,0.00,679.00,VWS V14.01,2013-05-31 14:11:00,
2013-05-31 10:15:00,87.5,69.9,30.08,West,263,0.0,5.0,56,0.00,,BKN250,0.00,689.00,VWS V14.01,2013-05-31 14:15:00,
2013-05-31 10:16:00,87.5,70.4,30.08,West,279,3.0,4.0,57,0.00,,CLR,0.00,686.00,VWS V14.01,2013-05-31 14:16:00,
2013-05-31 10:20:00,87.7,70.6,30.08,WSW,257,1.0,5.0,57,0.00,,BKN250,0.00,700.00,VWS V14.01,2013-05-31 14:20:00,
2013-05-31 10:21:00,87.6,71.0,30.08,West,263,1.0,2.0,58,0.00,,CLR,0.00,694.00,VWS V14.01,2013-05-31 14:21:00,
2013-05-31 10:25:00,88.2,70.5,30.08,West,259,1.0,3.0,56,0.00,,BKN250,0.00,714.00,VWS V14.01,2013-05-31 14:25:00,
2013-05-31 10:26:00,88.0,69.8,30.08,West,261,0.0,3.0,55,0.00,,CLR,0.00,707.00,VWS V14.01,2013-05-31 14:26:00,
2013-05-31 10:30:00,88.5,69.8,30.08,WNW,293,3.0,5.0,54,0.00,,BKN250,0.00,724.00,VWS V14.01,2013-05-31 14:30:00,
2013-05-31 10:31:00,88.5,70.3,30.08,WNW,289,4.0,5.0,55,0.00,,CLR,0.00,719.00,VWS V14.01,2013-05-31 14:31:00,
2013-05-31 10:35:00,88.3,70.1,30.08,West,274,1.0,1.0,55,0.00,,BKN250,0.00,729.00,VWS V14.01,2013-05-31 14:35:00,
2013-05-31 10:36:00,88.5,69.8,30.08,West,266,1.0,6.0,54,0.00,,CLR,0.00,726.00,VWS V14.01,2013-05-31 14:36:00,
2013-05-31 10:40:00,88.3,70.1,30.08,NW,306,4.0,4.0,55,0.00,,BKN250,0.00,740.00,VWS V14.01,2013-05-31 14:40:00,
2013-05-31 10:41:00,88.4,71.2,30.08,WNW,300,3.0,3.0,57,0.00,,CLR,0.00,735.00,VWS V14.01,2013-05-31 14:41:00,
2013-05-31 10:45:00,88.8,70.6,30.08,NNW,331,3.0,5.0,55,0.00,,BKN250,0.00,754.00,VWS V14.01,2013-05-31 14:45:00,
2013-05-31 10:46:00,88.4,69.7,30.08,NNW,333,1.0,5.0,54,0.00,,CLR,0.00,749.00,VWS V14.01,2013-05-31 14:46:00,
2013-05-31 10:50:00,89.2,70.4,30.08,WSW,250,4.0,6.0,54,0.00,,BKN250,0.00,759.00,VWS V14.01,2013-05-31 14:50:00,
2013-05-31 10:51:00,89.0,70.2,30.08,NW,323,0.0,3.0,54,0.00,,CLR,0.00,758.00,VWS V14.01,2013-05-31 14:51:00,
2013-05-31 10:55:00,89.2,70.4,30.08,WNW,289,4.0,5.0,54,0.00,,BKN250,0.00,763.00,VWS V14.01,2013-05-31 14:55:00,
2013-05-31 10:56:00,89.3,70.5,30.08,WSW,252,2.0,4.0,54,0.00,,CLR,0.00,763.00,VWS V14.01,2013-05-31 14:56:00,
2013-05-31 11:00:00,89.1,70.8,30.08,WSW,250,3.0,5.0,55,0.00,,BKN250,0.00,765.00,VWS V14.01,2013-05-31 15:00:00,
2013-05-31 11:01:00,89.0,70.2,30.08,West,273,2.0,5.0,54,0.00,,CLR,0.00,768.00,VWS V14.01,2013-05-31 15:01:00,
2013-05-31 11:05:00,89.7,70.3,30.08,NW,304,2.0,5.0,53,0.00,,BKN250,0.00,777.00,VWS V14.01,2013-05-31 15:05:00,
2013-05-31 11:06:00,89.6,71.8,30.08,WSW,248,2.0,4.0,56,0.00,,CLR,0.00,766.00,VWS V14.01,2013-05-31 15:06:00,
2013-05-31 11:10:00,89.9,70.5,30.08,WNW,288,3.0,3.0,53,0.00,,BKN250,0.00,786.00,VWS V14.01,2013-05-31 15:10:00,
2013-05-31 11:11:00,89.7,69.8,30.08,NW,306,1.0,3.0,52,0.00,,CLR,0.00,782.00,VWS V14.01,2013-05-31 15:11:00,
2013-05-31 11:15:00,90.3,71.4,30.08,WSW,257,1.0,5.0,54,0.00,,BKN250,0.00,796.00,VWS V14.01,2013-05-31 15:15:00,
2013-05-31 11:16:00,90.0,70.6,30.08,West,273,1.0,5.0,53,0.00,,CLR,0.00,788.00,VWS V14.01,2013-05-31 15:16:00,
2013-05-31 11:20:00,90.3,69.2,30.08,WNW,282,3.0,5.0,50,0.00,,BKN250,0.00,802.00,VWS V14.01,2013-05-31 15:20:00,
2013-05-31 11:21:00,90.3,69.7,30.08,NNW,331,0.0,4.0,51,0.00,,CLR,0.00,796.00,VWS V14.01,2013-05-31 15:21:00,
2013-05-31 11:25:00,90.2,70.8,30.08,WNW,302,0.0,4.0,53,0.00,,BKN250,0.00,807.00,VWS V14.01,2013-05-31 15:25:00,
2013-05-31 11:26:00,90.0,69.5,30.08,WNW,282,0.0,4.0,51,0.00,,CLR,0.00,807.00,VWS V14.01,2013-05-31 15:26:00,
2013-05-31 11:30:00,90.3,69.7,30.08,NNW,336,1.0,6.0,51,0.00,,BKN250,0.00,810.00,VWS V14.01,2013-05-31 15:30:00,
2013-05-31 11:31:00,90.4,69.8,30.08,NNW,348,4.0,6.0,51,0.00,,CLR,0.00,807.00,VWS V14.01,2013-05-31 15:31:00,
2013-05-31 11:35:00,90.4,69.8,30.07,NNW,336,1.0,3.0,51,0.00,,BKN250,0.00,816.00,VWS V14.01,2013-05-31 15:35:00,
2013-05-31 11:36:00,90.3,69.2,30.08,NNW,336,1.0,3.0,50,0.00,,FEW250,0.00,819.00,VWS V14.01,2013-05-31 15:36:00,
2013-05-31 11:40:00,91.1,69.9,30.07,NW,312,1.0,4.0,50,0.00,,BKN250,0.00,828.00,VWS V14.01,2013-05-31 15:40:00,
2013-05-31 11:41:00,90.8,70.2,30.07,NNW,336,3.0,4.0,51,0.00,,FEW250,0.00,817.00,VWS V14.01,2013-05-31 15:41:00,
2013-05-31 11:45:00,92.3,71.6,30.07,WNW,294,1.0,2.0,51,0.00,,BKN250,0.00,831.00,VWS V14.01,2013-05-31 15:45:00,
2013-05-31 11:46:00,91.7,70.4,30.07,NW,308,0.0,2.0,50,0.00,,FEW250,0.00,830.00,VWS V14.01,2013-05-31 15:46:00,
2013-05-31 11:50:00,92.2,69.1,30.07,North,350,2.0,5.0,47,0.00,,BKN250,0.00,840.00,VWS V14.01,2013-05-31 15:50:00,
2013-05-31 11:51:00,92.5,70.0,30.07,West,267,3.0,5.0,48,0.00,,FEW250,0.00,837.00,VWS V14.01,2013-05-31 15:51:00,
2013-05-31 11:55:00,91.8,69.3,30.07,NW,319,1.0,5.0,48,0.00,,BKN250,0.00,842.00,VWS V14.01,2013-05-31 15:55:00,
2013-05-31 11:56:00,92.2,68.4,30.07,NNW,328,3.0,4.0,46,0.00,,FEW250,0.00,846.00,VWS V14.01,2013-05-31 15:56:00,
2013-05-31 12:00:00,92.1,70.2,30.07,North,360,3.0,5.0,49,0.00,,BKN250,0.00,846.00,VWS V14.01,2013-05-31 16:00:00,
2013-05-31 12:01:00,92.0,70.7,30.07,NW,323,2.0,3.0,50,0.00,,FEW250,0.00,842.00,VWS V14.01,2013-05-31 16:01:00,
2013-05-31 12:05:00,92.4,69.3,30.07,NNW,338,2.0,4.0,47,0.00,,BKN250,0.00,854.00,VWS V14.01,2013-05-31 16:05:00,
2013-05-31 12:06:00,92.1,69.0,30.07,North,355,1.0,4.0,47,0.00,,FEW250,0.00,854.00,VWS V14.01,2013-05-31 16:06:00,
2013-05-31 12:10:00,93.2,68.1,30.07,NNW,345,2.0,5.0,44,0.00,,BKN250,0.00,868.00,VWS V14.01,2013-05-31 16:10:00,
2013-05-31 12:11:00,92.8,70.2,30.07,ENE,78,3.0,4.0,48,0.00,,FEW250,0.00,853.00,VWS V14.01,2013-05-31 16:11:00,
2013-05-31 12:15:00,93.4,68.2,30.07,North,350,2.0,5.0,44,0.00,,BKN250,0.00,865.00,VWS V14.01,2013-05-31 16:15:00,
2013-05-31 12:16:00,93.4,68.9,30.07,NW,306,2.0,5.0,45,0.00,,FEW250,0.00,870.00,VWS V14.01,2013-05-31 16:16:00,
2013-05-31 12:20:00,93.4,68.2,30.06,WNW,294,0.0,5.0,44,0.00,,BKN250,0.00,872.00,VWS V14.01,2013-05-31 16:20:00,
2013-05-31 12:21:00,93.4,68.9,30.07,NW,313,2.0,4.0,45,0.00,,FEW250,0.00,863.00,VWS V14.01,2013-05-31 16:21:00,
2013-05-31 12:25:00,94.0,68.8,30.06,WNW,294,5.0,5.0,44,0.00,,BKN250,0.00,870.00,VWS V14.01,2013-05-31 16:25:00,
2013-05-31 12:26:00,93.6,68.4,30.06,WNW,298,1.0,3.0,44,0.00,,FEW250,0.00,870.00,VWS V14.01,2013-05-31 16:26:00,
2013-05-31 12:30:00,93.8,69.3,30.06,WSW,247,1.0,6.0,45,0.00,,BKN250,0.00,867.00,VWS V14.01,2013-05-31 16:30:00,
2013-05-31 12:31:00,93.9,71.2,30.06,NW,304,3.0,6.0,48,0.00,,FEW250,0.00,868.00,VWS V14.01,2013-05-31 16:31:00,
2013-05-31 12:35:00,93.8,67.9,30.06,West,279,2.0,4.0,43,0.00,,BKN250,0.00,877.00,VWS V14.01,2013-05-31 16:35:00,
2013-05-31 12:36:00,93.9,68.7,30.06,NNW,329,1.0,4.0,44,0.00,,SCT250,0.00,874.00,VWS V14.01,2013-05-31 16:36:00,
2013-05-31 12:40:00,93.9,68.7,30.06,South,187,2.0,4.0,44,0.00,,BKN250,0.00,875.00,VWS V14.01,2013-05-31 16:40:00,
2013-05-31 12:41:00,93.5,67.0,30.06,NNW,327,0.0,4.0,42,0.00,,SCT250,0.00,881.00,VWS V14.01,2013-05-31 16:41:00,
2013-05-31 12:45:00,94.2,68.3,30.05,WSW,253,3.0,7.0,43,0.00,,BKN250,0.00,872.00,VWS V14.01,2013-05-31 16:45:00,
2013-05-31 12:46:00,94.2,66.9,30.06,South,169,1.0,3.0,41,0.00,,SCT250,0.00,872.00,VWS V14.01,2013-05-31 16:46:00,
2013-05-31 12:50:00,93.6,67.8,30.05,West,280,4.0,9.0,43,0.00,,BKN250,0.00,877.00,VWS V14.01,2013-05-31 16:50:00,
2013-05-31 12:51:00,94.0,69.4,30.05,West,263,7.0,9.0,45,0.00,,SCT250,0.00,875.00,VWS V14.01,2013-05-31 16:51:00,
2013-05-31 12:55:00,93.3,66.8,30.05,West,272,6.0,6.0,42,0.00,,BKN250,0.00,886.00,VWS V14.01,2013-05-31 16:55:00,
2013-05-31 12:56:00,93.4,67.6,30.05,West,268,3.0,5.0,43,0.00,,SCT250,0.00,874.00,VWS V14.01,2013-05-31 16:56:00,
2013-05-31 13:00:00,93.1,68.0,30.05,WSW,246,5.0,7.0,44,0.00,,BKN250,0.00,895.00,VWS V14.01,2013-05-31 17:00:00,
2013-05-31 13:01:00,93.1,66.6,30.05,South,175,3.0,7.0,42,0.00,,SCT250,0.00,893.00,VWS V14.01,2013-05-31 17:01:00,
2013-05-31 13:05:00,92.9,67.8,30.05,WNW,302,3.0,7.0,44,0.00,,BKN250,0.00,809.00,VWS V14.01,2013-05-31 17:05:00,
2013-05-31 13:06:00,93.1,67.3,30.05,West,268,3.0,7.0,43,0.00,,SCT250,0.00,893.00,VWS V14.01,2013-05-31 17:06:00,
2013-05-31 13:10:00,92.6,68.8,30.05,WSW,238,6.0,10.0,46,0.00,,BKN250,0.00,255.00,VWS V14.01,2013-05-31 17:10:00,
2013-05-31 13:11:00,92.9,67.1,30.05,South,184,3.0,4.0,43,0.00,,SCT250,0.00,221.00,VWS V14.01,2013-05-31 17:11:00,
2013-05-31 13:15:00,91.8,70.5,30.05,SW,221,3.0,8.0,50,0.00,,BKN250,0.00,206.00,VWS V14.01,2013-05-31 17:15:00,
2013-05-31 13:16:00,92.1,70.2,30.05,SW,226,4.0,8.0,49,0.00,,SCT250,0.00,251.00,VWS V14.01,2013-05-31 17:16:00,
2013-05-31 13:20:00,91.4,71.3,30.05,SW,218,7.0,9.0,52,0.00,,BKN250,0.00,810.00,VWS V14.01,2013-05-31 17:20:00,
2013-05-31 13:21:00,91.6,70.9,30.05,SW,225,2.0,4.0,51,0.00,,SCT250,0.00,229.00,VWS V14.01,2013-05-31 17:21:00,
2013-05-31 13:25:00,90.9,70.3,30.04,WSW,257,6.0,12.0,51,0.00,,BKN250,0.00,810.00,VWS V14.01,2013-05-31 17:25:00,
2013-05-31 13:26:00,91.2,70.6,30.05,SW,229,5.0,11.0,51,0.00,,SCT250,0.00,828.00,VWS V14.01,2013-05-31 17:26:00,
2013-05-31 13:30:00,91.1,72.2,30.04,South,186,6.0,9.0,54,0.00,,BKN250,0.00,842.00,VWS V14.01,2013-05-31 17:30:00,
2013-05-31 13:31:00,90.9,72.5,30.04,SW,221,4.0,8.0,55,0.00,,SCT250,0.00,854.00,VWS V14.01,2013-05-31 17:31:00,
2013-05-31 13:35:00,91.3,70.1,30.05,WSW,242,5.0,12.0,50,0.00,,BKN250,0.00,824.00,VWS V14.01,2013-05-31 17:35:00,
2013-05-31 13:36:00,91.2,71.7,30.04,SSW,211,7.0,9.0,53,0.00,,BKN250,0.00,814.00,VWS V14.01,2013-05-31 17:36:00,
2013-05-31 13:40:00,91.1,70.5,30.04,WNW,300,2.0,11.0,51,0.00,,BKN250,0.00,831.00,VWS V14.01,2013-05-31 17:40:00,
2013-05-31 13:41:00,91.1,70.5,30.05,SW,218,8.0,11.0,51,0.00,,BKN250,0.00,838.00,VWS V14.01,2013-05-31 17:41:00,
2013-05-31 13:45:00,91.1,70.5,30.05,South,191,5.0,13.0,51,0.00,,BKN250,0.00,847.00,VWS V14.01,2013-05-31 17:45:00,
2013-05-31 13:46:00,91.2,70.0,30.04,WSW,257,7.0,13.0,50,0.00,,BKN250,0.00,838.00,VWS V14.01,2013-05-31 17:46:00,
2013-05-31 13:50:00,91.4,71.3,30.04,SW,232,4.0,9.0,52,0.00,,BKN250,0.00,807.00,VWS V14.01,2013-05-31 17:50:00,
2013-05-31 13:51:00,91.2,71.7,30.04,SW,221,2.0,5.0,53,0.00,,BKN250,0.00,802.00,VWS V14.01,2013-05-31 17:51:00,
2013-05-31 13:55:00,91.7,71.6,30.04,WSW,250,5.0,8.0,52,0.00,,BKN250,0.00,559.00,VWS V14.01,2013-05-31 17:55:00,
2013-05-31 13:56:00,91.5,71.4,30.04,SW,236,3.0,8.0,52,0.00,,BKN250,0.00,659.00,VWS V14.01,2013-05-31 17:56:00,
2013-05-31 14:00:00,91.6,70.3,30.04,SW,224,3.0,11.0,50,0.00,,BKN250,0.00,824.00,VWS V14.01,2013-05-31 18:00:00,
2013-05-31 14:01:00,91.7,71.6,30.04,SW,234,7.0,9.0,52,0.00,,BKN250,0.00,559.00,VWS V14.01,2013-05-31 18:01:00,
2013-05-31 14:05:00,91.7,70.4,30.04,SW,236,2.0,10.0,50,0.00,,BKN250,0.00,858.00,VWS V14.01,2013-05-31 18:05:00,
2013-05-31 14:06:00,91.6,70.3,30.04,South,173,3.0,8.0,50,0.00,,BKN250,0.00,838.00,VWS V14.01,2013-05-31 18:06:00,
2013-05-31 14:10:00,91.9,70.0,30.04,SSW,198,6.0,10.0,49,0.00,,BKN250,0.00,875.00,VWS V14.01,2013-05-31 18:10:00,
2013-05-31 14:11:00,91.9,70.6,30.04,WSW,250,5.0,6.0,50,0.00,,BKN250,0.00,882.00,VWS V14.01,2013-05-31 18:11:00,
2013-05-31 14:15:00,91.8,69.9,30.03,SSE,167,4.0,11.0,49,0.00,,BKN250,0.00,830.00,VWS V14.01,2013-05-31 18:15:00,
2013-05-31 14:16:00,91.7,69.2,30.04,West,267,0.0,10.0,48,0.00,,BKN250,0.00,891.00,VWS V14.01,2013-05-31 18:16:00,
2013-05-31 14:20:00,91.7,69.2,30.03,WSW,244,3.0,10.0,48,0.00,,BKN250,0.00,786.00,VWS V14.01,2013-05-31 18:20:00,
2013-05-31 14:21:00,91.8,68.7,30.03,WSW,239,8.0,10.0,47,0.00,,BKN250,0.00,786.00,VWS V14.01,2013-05-31 18:21:00,
2013-05-31 14:25:00,91.2,68.8,30.03,SW,235,1.0,13.0,48,0.00,,BKN250,0.00,705.00,VWS V14.01,2013-05-31 18:25:00,
2013-05-31 14:26:00,91.5,68.4,30.03,SSW,203,5.0,13.0,47,0.00,,BKN250,0.00,675.00,VWS V14.01,2013-05-31 18:26:00,
2013-05-31 14:30:00,90.9,67.9,30.03,SW,234,8.0,9.0,47,0.00,,BKN250,0.00,624.00,VWS V14.01,2013-05-31 18:30:00,
2013-05-31 14:31:00,91.0,68.0,30.03,South,187,2.0,8.0,47,0.00,,BKN250,0.00,524.00,VWS V14.01,2013-05-31 18:31:00,
2013-05-31 14:35:00,90.8,67.8,30.03,SW,236,8.0,9.0,47,0.00,,BKN250,0.00,823.00,VWS V14.01,2013-05-31 18:35:00,
2013-05-31 14:36:00,90.8,67.8,30.03,WSW,245,2.0,9.0,47,0.00,,BKN250,0.00,751.00,VWS V14.01,2013-05-31 18:36:00,
2013-05-31 14:40:00,90.9,67.3,30.03,East,87,7.0,10.0,46,0.00,,BKN250,0.00,724.00,VWS V14.01,2013-05-31 18:40:00,
2013-05-31 14:41:00,90.8,67.8,30.03,WSW,240,4.0,10.0,47,0.00,,BKN250,0.00,823.00,VWS V14.01,2013-05-31 18:41:00,
2013-05-31 14:45:00,90.9,66.6,30.03,WSW,244,5.0,13.0,45,0.00,,BKN250,0.00,680.00,VWS V14.01,2013-05-31 18:45:00,
2013-05-31 14:46:00,90.8,67.2,30.03,SW,227,2.0,13.0,46,0.00,,BKN250,0.00,670.00,VWS V14.01,2013-05-31 18:46:00,
2013-05-31 14:50:00,91.0,67.4,30.02,SW,232,9.0,10.0,46,0.00,,BKN250,0.00,740.00,VWS V14.01,2013-05-31 18:50:00,
2013-05-31 14:51:00,90.9,67.9,30.03,West,269,4.0,8.0,47,0.00,,BKN250,0.00,624.00,VWS V14.01,2013-05-31 18:51:00,
2013-05-31 14:55:00,91.2,66.9,30.02,SW,225,0.0,13.0,45,0.00,,BKN250,0.00,867.00,VWS V14.01,2013-05-31 18:55:00,
2013-05-31 14:56:00,91.2,68.2,30.03,SSW,213,5.0,10.0,47,0.00,,BKN250,0.00,761.00,VWS V14.01,2013-05-31 18:56:00,
2013-05-31 15:00:00,91.4,67.7,30.02,WSW,254,7.0,9.0,46,0.00,,BKN250,0.00,810.00,VWS V14.01,2013-05-31 19:00:00,
2013-05-31 15:01:00,91.3,67.6,30.02,SW,234,6.0,9.0,46,0.00,,BKN250,0.00,847.00,VWS V14.01,2013-05-31 19:01:00,
2013-05-31 15:05:00,91.5,67.2,30.02,South,188,4.0,13.0,45,0.00,,BKN250,0.00,851.00,VWS V14.01,2013-05-31 19:05:00,
2013-05-31 15:06:00,91.5,67.2,30.03,WSW,252,7.0,10.0,45,0.00,,BKN250,0.00,867.00,VWS V14.01,2013-05-31 19:06:00,
2013-05-31 15:10:00,91.7,66.7,30.03,West,269,6.0,12.0,44,0.00,,BKN250,0.00,786.00,VWS V14.01,2013-05-31 19:10:00,
2013-05-31 15:11:00,91.6,67.3,30.03,WSW,246,6.0,7.0,45,0.00,,BKN250,0.00,786.00,VWS V14.01,2013-05-31 19:11:00,
2013-05-31 15:15:00,91.3,67.6,30.02,SW,234,8.0,17.0,46,0.00,,BKN250,0.00,712.00,VWS V14.01,2013-05-31 19:15:00,
2013-05-31 15:16:00,91.5,67.2,30.02,SW,221,2.0,17.0,45,0.00,,BKN250,0.00,649.00,VWS V14.01,2013-05-31 19:16:00,
2013-05-31 15:20:00,90.7,68.3,30.02,South,171,5.0,11.0,48,0.00,,BKN250,0.00,656.00,VWS V14.01,2013-05-31 19:20:00,
2013-05-31 15:21:00,91.0,68.0,30.02,WSW,238,4.0,11.0,47,0.00,,BKN250,0.00,679.00,VWS V14.01,2013-05-31 19:21:00,
2013-05-31 15:25:00,90.1,69.6,30.02,SW,222,4.0,11.0,51,0.00,,BKN250,0.00,747.00,VWS V14.01,2013-05-31 19:25:00,
2013-05-31 15:26:00,90.4,69.2,30.02,West,260,5.0,9.0,50,0.00,,BKN250,0.00,742.00,VWS V14.01,2013-05-31 19:26:00,
2013-05-31 15:30:00,90.3,69.7,30.02,West,266,5.0,8.0,51,0.00,,BKN250,0.00,566.00,VWS V14.01,2013-05-31 19:30:00,
2013-05-31 15:31:00,90.2,69.6,30.02,SSW,213,4.0,6.0,51,0.00,,BKN250,0.00,747.00,VWS V14.01,2013-05-31 19:31:00,
2013-05-31 15:35:00,90.2,70.8,30.02,WSW,238,4.0,7.0,53,0.00,,BKN250,0.00,446.00,VWS V14.01,2013-05-31 19:35:00,
2013-05-31 15:36:00,90.2,69.6,30.02,WSW,240,3.0,6.0,51,0.00,,BKN250,0.00,534.00,VWS V14.01,2013-05-31 19:36:00,
2013-05-31 15:40:00,89.9,69.9,30.02,West,273,6.0,11.0,52,0.00,,BKN250,0.00,371.00,VWS V14.01,2013-05-31 19:40:00,
2013-05-31 15:41:00,90.2,70.2,30.02,WSW,239,7.0,8.0,52,0.00,,BKN250,0.00,394.00,VWS V14.01,2013-05-31 19:41:00,
2013-05-31 15:45:00,89.4,69.5,30.02,SE,125,11.0,11.0,52,0.00,,BKN250,0.00,294.00,VWS V14.01,2013-05-31 19:45:00,
2013-05-31 15:46:00,89.7,70.3,30.02,West,266,2.0,6.0,53,0.00,,BKN250,0.00,315.00,VWS V14.01,2013-05-31 19:46:00,
2013-05-31 15:50:00,88.6,69.3,30.02,SW,234,4.0,11.0,53,0.00,,BKN250,0.00,260.00,VWS V14.01,2013-05-31 19:50:00,
2013-05-31 15:51:00,89.0,69.1,30.02,SW,234,4.0,11.0,52,0.00,,BKN250,0.00,269.00,VWS V14.01,2013-05-31 19:51:00,
2013-05-31 15:55:00,88.0,69.3,30.02,SW,217,6.0,8.0,54,0.00,,BKN250,0.00,255.00,VWS V14.01,2013-05-31 19:55:00,
2013-05-31 15:56:00,88.4,69.1,30.02,South,187,2.0,5.0,53,0.00,,BKN250,0.00,255.00,VWS V14.01,2013-05-31 19:56:00,
2013-05-31 16:00:00,87.5,69.9,30.02,WSW,251,2.0,7.0,56,0.00,,BKN250,0.00,262.00,VWS V14.01,2013-05-31 20:00:00,
2013-05-31 16:01:00,87.8,69.6,30.02,WSW,244,4.0,7.0,55,0.00,,BKN250,0.00,257.00,VWS V14.01,2013-05-31 20:01:00,
2013-05-31 16:05:00,87.3,70.7,30.02,WSW,255,2.0,4.0,58,0.00,,BKN250,0.00,306.00,VWS V14.01,2013-05-31 20:05:00,
2013-05-31 16:06:00,87.4,70.8,30.02,WSW,250,2.0,2.0,58,0.00,,BKN250,0.00,276.00,VWS V14.01,2013-05-31 20:06:00,
2013-05-31 16:10:00,87.0,69.4,30.02,WSW,248,3.0,7.0,56,0.00,,BKN250,0.00,320.00,VWS V14.01,2013-05-31 20:10:00,
2013-05-31 16:11:00,87.2,69.6,30.02,WNW,298,1.0,4.0,56,0.00,,BKN250,0.00,322.00,VWS V14.01,2013-05-31 20:11:00,
2013-05-31 16:15:00,86.4,69.4,30.02,South,187,5.0,11.0,57,0.00,,BKN250,0.00,318.00,VWS V14.01,2013-05-31 20:15:00,
2013-05-31 16:16:00,86.9,69.8,30.02,West,276,7.0,7.0,57,0.00,,BKN250,0.00,318.00,VWS V14.01,2013-05-31 20:16:00,
2013-05-31 16:20:00,85.7,69.2,30.02,SSW,204,3.0,9.0,58,0.00,,BKN250,0.00,387.00,VWS V14.01,2013-05-31 20:20:00,
2013-05-31 16:21:00,86.1,69.1,30.02,SW,227,7.0,9.0,57,0.00,,BKN250,0.00,341.00,VWS V14.01,2013-05-31 20:21:00,
2013-05-31 16:25:00,85.2,68.8,30.02,WSW,250,5.0,10.0,58,0.00,,BKN250,0.00,341.00,VWS V14.01,2013-05-31 20:25:00,
2013-05-31 16:26:00,85.5,69.1,30.02,WNW,286,3.0,9.0,58,0.00,,BKN250,0.00,390.00,VWS V14.01,2013-05-31 20:26:00,
2013-05-31 16:30:00,85.2,68.8,30.02,WSW,243,3.0,9.0,58,0.00,,BKN250,0.00,510.00,VWS V14.01,2013-05-31 20:30:00,
2013-05-31 16:31:00,85.2,68.8,30.02,ESE,123,8.0,9.0,58,0.00,,BKN250,0.00,396.00,VWS V14.01,2013-05-31 20:31:00,
2013-05-31 16:35:00,85.2,69.3,30.02,SSW,207,1.0,8.0,59,0.00,,BKN250,0.00,473.00,VWS V14.01,2013-05-31 20:35:00,
2013-05-31 16:36:00,85.1,68.7,30.02,WSW,238,0.0,7.0,58,0.00,,BKN250,0.00,592.00,VWS V14.01,2013-05-31 20:36:00,
2013-05-31 16:40:00,85.6,69.1,30.02,West,267,2.0,5.0,58,0.00,,BKN250,0.00,608.00,VWS V14.01,2013-05-31 20:40:00,
2013-05-31 16:41:00,85.3,69.8,30.02,WSW,252,1.0,5.0,60,0.00,,BKN250,0.00,503.00,VWS V14.01,2013-05-31 20:41:00,
2013-05-31 16:45:00,85.7,69.2,30.02,SW,225,3.0,9.0,58,0.00,,BKN250,0.00,684.00,VWS V14.01,2013-05-31 20:45:00,
2013-05-31 16:46:00,85.7,69.2,30.02,West,262,8.0,8.0,58,0.00,,BKN250,0.00,666.00,VWS V14.01,2013-05-31 20:46:00,
2013-05-31 16:50:00,85.9,68.9,30.01,West,267,3.0,9.0,57,0.00,,BKN250,0.00,587.00,VWS V14.01,2013-05-31 20:50:00,
2013-05-31 16:51:00,85.8,68.8,30.01,WSW,250,3.0,9.0,57,0.00,,BKN250,0.00,638.00,VWS V14.01,2013-05-31 20:51:00,
2013-05-31 16:55:00,86.0,68.5,30.01,WSW,249,10.0,10.0,56,0.00,,BKN250,0.00,584.00,VWS V14.01,2013-05-31 20:55:00,
2013-05-31 16:56:00,86.0,69.0,30.01,West,271,3.0,9.0,57,0.00,,BKN250,0.00,598.00,VWS V14.01,2013-05-31 20:56:00,
2013-05-31 17:00:00,85.8,67.2,30.01,West,264,11.0,12.0,54,0.00,,BKN250,0.00,555.00,VWS V14.01,2013-05-31 21:00:00,
2013-05-31 17:01:00,85.9,67.9,30.01,WSW,255,8.0,12.0,55,0.00,,BKN250,0.00,577.00,VWS V14.01,2013-05-31 21:01:00,
2013-05-31 17:05:00,85.4,66.9,30.01,West,267,9.0,15.0,54,0.00,,BKN250,0.00,526.00,VWS V14.01,2013-05-31 21:05:00,
2013-05-31 17:06:00,85.6,67.1,30.01,SSW,209,7.0,15.0,54,0.00,,BKN250,0.00,543.00,VWS V14.01,2013-05-31 21:06:00,
2013-05-31 17:10:00,85.0,66.5,30.01,West,267,8.0,16.0,54,0.00,,BKN250,0.00,499.00,VWS V14.01,2013-05-31 21:10:00,
2013-05-31 17:11:00,85.2,66.7,30.01,SSW,199,7.0,16.0,54,0.00,,BKN250,0.00,517.00,VWS V14.01,2013-05-31 21:11:00,
2013-05-31 17:15:00,85.0,66.5,30.01,SW,217,4.0,13.0,54,0.00,,BKN250,0.00,475.00,VWS V14.01,2013-05-31 21:15:00,
2013-05-31 17:16:00,85.0,66.5,30.01,SSW,205,4.0,13.0,54,0.00,,BKN250,0.00,489.00,VWS V14.01,2013-05-31 21:16:00,
2013-05-31 17:20:00,85.1,66.6,30.01,SW,221,10.0,10.0,54,0.00,,BKN250,0.00,452.00,VWS V14.01,2013-05-31 21:20:00,
2013-05-31 17:21:00,85.0,66.5,30.01,SW,226,2.0,7.0,54,0.00,,BKN250,0.00,466.00,VWS V14.01,2013-05-31 21:21:00,
2013-05-31 17:25:00,85.2,67.2,30.01,SSE,166,4.0,10.0,55,0.00,,BKN250,0.00,431.00,VWS V14.01,2013-05-31 21:25:00,
2013-05-31 17:26:00,85.1,66.6,30.01,WSW,247,6.0,10.0,54,0.00,,BKN250,0.00,443.00,VWS V14.01,2013-05-31 21:26:00,
2013-05-31 17:30:00,85.1,66.1,30.01,SW,234,4.0,10.0,53,0.00,,BKN250,0.00,420.00,VWS V14.01,2013-05-31 21:30:00,
2013-05-31 17:31:00,85.2,66.2,30.01,SW,235,10.0,10.0,53,0.00,,BKN250,0.00,429.00,VWS V14.01,2013-05-31 21:31:00,
2013-05-31 17:35:00,85.2,67.2,30.00,WSW,242,4.0,8.0,55,0.00,,BKN250,0.00,403.00,VWS V14.01,2013-05-31 21:35:00,
2013-05-31 17:36:00,85.1,66.6,30.01,WSW,237,2.0,8.0,54,0.00,,BKN220,0.00,415.00,VWS V14.01,2013-05-31 21:36:00,
2013-05-31 17:40:00,85.1,66.6,30.00,South,184,2.0,9.0,54,0.00,,BKN250,0.00,387.00,VWS V14.01,2013-05-31 21:40:00,
2013-05-31 17:41:00,85.2,66.7,30.00,WSW,253,5.0,6.0,54,0.00,,BKN220,0.00,399.00,VWS V14.01,2013-05-31 21:41:00,
2013-05-31 17:45:00,84.9,66.4,30.00,SSE,156,2.0,11.0,54,0.00,,BKN250,0.00,369.00,VWS V14.01,2013-05-31 21:45:00,
2013-05-31 17:46:00,85.1,66.1,30.00,SSW,206,5.0,6.0,53,0.00,,BKN220,0.00,378.00,VWS V14.01,2013-05-31 21:46:00,
2013-05-31 17:50:00,84.7,66.8,30.00,SSE,159,5.0,9.0,55,0.00,,BKN250,0.00,359.00,VWS V14.01,2013-05-31 21:50:00,
2013-05-31 17:51:00,84.8,66.3,30.00,WSW,248,4.0,9.0,54,0.00,,BKN220,0.00,366.00,VWS V14.01,2013-05-31 21:51:00,
2013-05-31 17:55:00,84.6,66.1,30.00,West,279,2.0,10.0,54,0.00,,BKN250,0.00,338.00,VWS V14.01,2013-05-31 21:55:00,
2013-05-31 17:56:00,84.7,66.2,30.00,South,182,5.0,6.0,54,0.00,,BKN220,0.00,346.00,VWS V14.01,2013-05-31 21:56:00,
2013-05-31 18:00:00,84.6,66.7,29.99,WSW,249,5.0,8.0,55,0.00,,BKN250,0.00,322.00,VWS V14.01,2013-05-31 22:00:00,
2013-05-31 18:01:00,84.6,66.1,29.99,WSW,243,3.0,8.0,54,0.00,,BKN220,0.00,329.00,VWS V14.01,2013-05-31 22:01:00,
2013-05-31 18:05:00,84.4,65.9,29.99,WSW,248,1.0,10.0,54,0.00,,BKN250,0.00,306.00,VWS V14.01,2013-05-31 22:05:00,
2013-05-31 18:06:00,84.6,66.7,29.99,SSW,196,4.0,8.0,55,0.00,,BKN220,0.00,318.00,VWS V14.01,2013-05-31 22:06:00,
2013-05-31 18:10:00,84.2,65.2,29.99,South,180,4.0,10.0,53,0.00,,BKN250,0.00,265.00,VWS V14.01,2013-05-31 22:10:00,
2013-05-31 18:11:00,84.3,65.9,29.99,South,180,0.0,10.0,54,0.00,,BKN220,0.00,301.00,VWS V14.01,2013-05-31 22:11:00,
2013-05-31 18:15:00,84.0,65.6,29.99,SW,224,5.0,8.0,54,0.00,,BKN250,0.00,276.00,VWS V14.01,2013-05-31 22:15:00,
2013-05-31 18:16:00,84.1,65.7,29.99,WSW,257,5.0,8.0,54,0.00,,BKN220,0.00,281.00,VWS V14.01,2013-05-31 22:16:00,
2013-05-31 18:20:00,83.8,65.4,29.99,WSW,254,3.0,10.0,54,0.00,,BKN250,0.00,260.00,VWS V14.01,2013-05-31 22:20:00,
2013-05-31 18:21:00,83.9,65.5,29.99,SSW,207,4.0,10.0,54,0.00,,BKN220,0.00,276.00,VWS V14.01,2013-05-31 22:21:00,
2013-05-31 18:25:00,83.9,66.0,29.99,SSW,208,7.0,8.0,55,0.00,,BKN250,0.00,248.00,VWS V14.01,2013-05-31 22:25:00,
2013-05-31 18:26:00,83.9,66.0,29.99,West,269,5.0,7.0,55,0.00,,BKN220,0.00,253.00,VWS V14.01,2013-05-31 22:26:00,
2013-05-31 18:30:00,83.8,65.9,29.98,SSW,213,4.0,10.0,55,0.00,,BKN250,0.00,144.00,VWS V14.01,2013-05-31 22:30:00,
2013-05-31 18:31:00,83.9,65.5,29.99,WSW,240,2.0,9.0,54,0.00,,BKN220,0.00,237.00,VWS V14.01,2013-05-31 22:31:00,
2013-05-31 18:35:00,83.7,66.3,29.98,SW,228,6.0,8.0,56,0.00,,BKN250,0.00,209.00,VWS V14.01,2013-05-31 22:35:00,
2013-05-31 18:36:00,83.8,65.9,29.98,SSW,213,4.0,10.0,55,0.00,,BKN230,0.00,144.00,VWS V14.01,2013-05-31 22:36:00,
2013-05-31 18:40:00,83.6,65.7,29.98,SW,236,4.0,7.0,55,0.00,,BKN250,0.00,169.00,VWS V14.01,2013-05-31 22:40:00,
2013-05-31 18:41:00,83.6,65.7,29.99,WSW,247,4.0,7.0,55,0.00,,BKN230,0.00,202.00,VWS V14.01,2013-05-31 22:41:00,
2013-05-31 18:45:00,83.4,66.1,29.98,SW,235,3.0,7.0,56,0.00,,BKN250,0.00,130.00,VWS V14.01,2013-05-31 22:45:00,
2013-05-31 18:46:00,83.5,66.2,29.98,SSW,206,1.0,4.0,56,0.00,,BKN230,0.00,135.00,VWS V14.01,2013-05-31 22:46:00,
2013-05-31 18:50:00,83.2,66.4,29.98,SW,224,3.0,7.0,57,0.00,,BKN250,0.00,113.00,VWS V14.01,2013-05-31 22:50:00,
2013-05-31 18:51:00,83.3,66.0,29.98,West,277,5.0,5.0,56,0.00,,BKN230,0.00,132.00,VWS V14.01,2013-05-31 22:51:00,
2013-05-31 18:55:00,82.9,66.6,29.98,WSW,250,1.0,9.0,58,0.00,,BKN250,0.00,83.00,VWS V14.01,2013-05-31 22:55:00,
2013-05-31 18:56:00,83.0,66.2,29.98,SSW,200,2.0,8.0,57,0.00,,BKN230,0.00,107.00,VWS V14.01,2013-05-31 22:56:00,
2013-05-31 19:00:00,82.5,66.2,29.98,WSW,244,1.0,5.0,58,0.00,,BKN250,0.00,56.00,VWS V14.01,2013-05-31 23:00:00,
2013-05-31 19:01:00,82.8,66.5,29.98,SW,227,2.0,5.0,58,0.00,,BKN230,0.00,69.00,VWS V14.01,2013-05-31 23:01:00,
2013-05-31 19:05:00,82.1,66.8,29.98,West,259,5.0,7.0,60,0.00,,BKN250,0.00,56.00,VWS V14.01,2013-05-31 23:05:00,
2013-05-31 19:06:00,82.4,66.7,29.98,SW,220,5.0,5.0,59,0.00,,BKN230,0.00,58.00,VWS V14.01,2013-05-31 23:06:00,
2013-05-31 19:10:00,81.7,66.9,29.98,West,264,1.0,6.0,61,0.00,,BKN250,0.00,72.00,VWS V14.01,2013-05-31 23:10:00,
2013-05-31 19:11:00,82.0,66.8,29.98,SW,236,5.0,6.0,60,0.00,,BKN230,0.00,60.00,VWS V14.01,2013-05-31 23:11:00,
2013-05-31 19:15:00,81.3,67.1,29.98,WSW,252,2.0,6.0,62,0.00,,BKN250,0.00,84.00,VWS V14.01,2013-05-31 23:15:00,
2013-05-31 19:16:00,81.5,66.8,29.98,SSW,201,2.0,6.0,61,0.00,,BKN230,0.00,74.00,VWS V14.01,2013-05-31 23:16:00,
2013-05-31 19:20:00,81.0,66.8,29.98,WSW,252,4.0,6.0,62,0.00,,BKN250,0.00,72.00,VWS V14.01,2013-05-31 23:20:00,
2013-05-31 19:21:00,81.2,66.9,29.98,SW,220,3.0,6.0,62,0.00,,BKN230,0.00,83.00,VWS V14.01,2013-05-31 23:21:00,
2013-05-31 19:25:00,80.8,67.0,29.98,SW,228,5.0,5.0,63,0.00,,BKN250,0.00,77.00,VWS V14.01,2013-05-31 23:25:00,
2013-05-31 19:26:00,80.9,66.7,29.98,WSW,252,2.0,4.0,62,0.00,,BKN230,0.00,62.00,VWS V14.01,2013-05-31 23:26:00,
2013-05-31 19:30:00,80.6,66.8,29.98,SW,230,8.0,8.0,63,0.00,,BKN250,0.00,63.00,VWS V14.01,2013-05-31 23:30:00,
2013-05-31 19:31:00,80.7,66.9,29.98,WSW,238,1.0,5.0,63,0.00,,BKN230,0.00,70.00,VWS V14.01,2013-05-31 23:31:00,
2013-05-31 19:35:00,80.4,67.1,29.97,WSW,241,4.0,8.0,64,0.00,,BKN250,0.00,49.00,VWS V14.01,2013-05-31 23:35:00,
2013-05-31 19:36:00,80.5,67.2,29.97,SW,230,1.0,8.0,64,0.00,,SCT250,0.00,56.00,VWS V14.01,2013-05-31 23:36:00,
2013-05-31 19:40:00,80.1,66.8,29.97,SW,225,0.0,7.0,64,0.00,,BKN250,0.00,28.00,VWS V14.01,2013-05-31 23:40:00,
2013-05-31 19:41:00,80.3,67.0,29.97,WSW,242,1.0,7.0,64,0.00,,SCT250,0.00,32.00,VWS V14.01,2013-05-31 23:41:00,
2013-05-31 19:45:00,79.8,67.0,29.98,SW,218,4.0,5.0,65,0.00,,BKN250,0.00,25.00,VWS V14.01,2013-05-31 23:45:00,
2013-05-31 19:46:00,80.0,67.2,29.97,SW,228,2.0,3.0,65,0.00,,SCT250,0.00,28.00,VWS V14.01,2013-05-31 23:46:00,
2013-05-31 19:50:00,79.3,67.0,29.97,SW,231,4.0,6.0,66,0.00,,BKN250,0.00,19.00,VWS V14.01,2013-05-31 23:50:00,
2013-05-31 19:51:00,79.6,66.8,29.98,SW,229,1.0,5.0,65,0.00,,SCT250,0.00,23.00,VWS V14.01,2013-05-31 23:51:00,
2013-05-31 19:55:00,78.9,67.0,29.98,WSW,241,1.0,5.0,67,0.00,,BKN250,0.00,16.00,VWS V14.01,2013-05-31 23:55:00,
2013-05-31 19:56:00,79.1,66.8,29.97,WSW,242,4.0,5.0,66,0.00,,SCT250,0.00,19.00,VWS V14.01,2013-05-31 23:56:00,
2013-05-31 20:00:00,78.5,66.6,29.98,SSW,207,3.0,5.0,67,0.00,,BKN250,0.00,14.00,VWS V14.01,2013-06-01 00:00:00,
2013-05-31 20:01:00,78.8,66.9,29.98,WSW,252,0.0,4.0,67,0.00,,SCT250,0.00,16.00,VWS V14.01,2013-06-01 00:01:00,
2013-05-31 20:05:00,78.2,66.8,29.97,SW,221,1.0,4.0,68,0.00,,BKN250,0.00,11.00,VWS V14.01,2013-06-01 00:05:00,
2013-05-31 20:06:00,78.4,67.0,29.97,SW,216,3.0,4.0,68,0.00,,SCT250,0.00,12.00,VWS V14.01,2013-06-01 00:06:00,
2013-05-31 20:10:00,77.8,66.8,29.97,WSW,246,2.0,4.0,69,0.00,,BKN250,0.00,7.00,VWS V14.01,2013-06-01 00:10:00,
2013-05-31 20:11:00,78.1,66.7,29.97,WSW,254,4.0,4.0,68,0.00,,SCT250,0.00,9.00,VWS V14.01,2013-06-01 00:11:00,
2013-05-31 20:15:00,77.5,66.9,29.98,SSW,194,1.0,4.0,70,0.00,,BKN250,0.00,0.00,VWS V14.01,2013-06-01 00:15:00,
2013-05-31 20:16:00,77.7,66.7,29.98,SW,236,3.0,4.0,69,0.00,,SCT250,0.00,5.00,VWS V14.01,2013-06-01 00:16:00,
2013-05-31 20:20:00,77.1,67.0,29.98,WSW,251,1.0,5.0,71,0.00,,BKN250,0.00,0.00,VWS V14.01,2013-06-01 00:20:00,
2013-05-31 20:21:00,77.3,66.8,29.98,WSW,241,2.0,4.0,70,0.00,,SCT250,0.00,0.00,VWS V14.01,2013-06-01 00:21:00,
2013-05-31 20:25:00,76.7,66.6,29.98,SW,223,3.0,5.0,71,0.00,,BKN250,0.00,0.00,VWS V14.01,2013-06-01 00:25:00,
2013-05-31 20:26:00,76.9,66.8,29.98,SW,223,1.0,5.0,71,0.00,,SCT250,0.00,0.00,VWS V14.01,2013-06-01 00:26:00,
2013-05-31 20:30:00,76.5,66.8,29.98,SW,232,1.0,5.0,72,0.00,,BKN250,0.00,0.00,VWS V14.01,2013-06-01 00:30:00,
2013-05-31 20:31:00,76.6,66.9,29.98,SW,232,3.0,5.0,72,0.00,,SCT250,0.00,0.00,VWS V14.01,2013-06-01 00:31:00,
2013-05-31 20:35:00,76.2,66.9,29.98,SSW,200,2.0,6.0,73,0.00,,BKN250,0.00,0.00,VWS V14.01,2013-06-01 00:35:00,
2013-05-31 20:36:00,76.4,66.7,29.98,WSW,241,5.0,6.0,72,0.00,,SCT250,0.00,0.00,VWS V14.01,2013-06-01 00:36:00,
2013-05-31 20:40:00,76.0,66.7,29.98,SW,227,2.0,5.0,73,0.00,,BKN250,0.00,0.00,VWS V14.01,2013-06-01 00:40:00,
2013-05-31 20:41:00,76.1,66.8,29.98,SW,228,4.0,4.0,73,0.00,,SCT250,0.00,0.00,VWS V14.01,2013-06-01 00:41:00,
2013-05-31 20:45:00,75.8,66.9,29.98,South,183,2.0,6.0,74,0.00,,BKN250,0.00,0.00,VWS V14.01,2013-06-01 00:45:00,
2013-05-31 20:46:00,75.9,66.6,29.98,South,183,1.0,6.0,73,0.00,,SCT250,0.00,0.00,VWS V14.01,2013-06-01 00:46:00,
2013-05-31 20:50:00,75.7,66.8,29.98,SW,229,1.0,5.0,74,0.00,,SCT250,0.00,0.00,VWS V14.01,2013-06-01 00:50:00,
2013-05-31 20:55:00,75.5,67.0,29.98,SW,215,2.0,3.0,75,0.00,,SCT250,0.00,0.00,VWS V14.01,2013-06-01 00:55:00,
2013-05-31 21:00:00,75.2,66.7,29.98,SW,233,3.0,4.0,75,0.00,,BKN250,0.00,0.00,VWS V14.01,2013-06-01 01:00:00,
2013-05-31 21:01:00,75.3,66.8,29.98,SW,234,1.0,3.0,75,0.00,,SCT250,0.00,0.00,VWS V14.01,2013-06-01 01:01:00,
2013-05-31 21:05:00,75.1,66.6,29.99,South,190,2.0,5.0,75,0.00,,BKN250,0.00,0.00,VWS V14.01,2013-06-01 01:05:00,
2013-05-31 21:06:00,75.1,66.6,29.98,SW,217,2.0,4.0,75,0.00,,SCT250,0.00,0.00,VWS V14.01,2013-06-01 01:06:00,
2013-05-31 21:10:00,75.1,66.6,29.99,SSW,208,1.0,5.0,75,0.00,,SCT250,0.00,0.00,VWS V14.01,2013-06-01 01:10:00,
2013-05-31 21:15:00,74.9,66.4,29.99,SW,224,2.0,5.0,75,0.00,,SCT250,0.00,0.00,VWS V14.01,2013-06-01 01:15:00,
2013-05-31 21:20:00,74.7,66.6,29.99,SW,221,4.0,5.0,76,0.00,,BKN250,0.00,0.00,VWS V14.01,2013-06-01 01:20:00,
2013-05-31 21:21:00,74.8,66.7,29.99,SSW,207,1.0,4.0,76,0.00,,SCT250,0.00,0.00,VWS V14.01,2013-06-01 01:21:00,
2013-05-31 21:25:00,74.6,66.5,29.99,SW,230,1.0,5.0,76,0.00,,BKN250,0.00,0.00,VWS V14.01,2013-06-01 01:25:00,
2013-05-31 21:26:00,74.6,66.5,29.99,SW,234,2.0,5.0,76,0.00,,SCT250,0.00,0.00,VWS V14.01,2013-06-01 01:26:00,
2013-05-31 21:30:00,74.6,66.5,29.99,SW,228,2.0,6.0,76,0.00,,BKN250,0.00,0.00,VWS V14.01,2013-06-01 01:30:00,
2013-05-31 21:31:00,74.6,66.5,29.99,SW,230,1.0,3.0,76,0.00,,SCT250,0.00,0.00,VWS V14.01,2013-06-01 01:31:00,
2013-05-31 21:35:00,74.4,66.7,29.99,SSW,196,2.0,3.0,77,0.00,,BKN250,0.00,0.00,VWS V14.01,2013-06-01 01:35:00,
2013-05-31 21:36:00,74.6,66.5,29.99,SW,228,2.0,6.0,76,0.00,,SCT250,0.00,0.00,VWS V14.01,2013-06-01 01:36:00,
2013-05-31 21:40:00,74.3,66.6,29.99,South,189,0.0,4.0,77,0.00,,BKN250,0.00,0.00,VWS V14.01,2013-06-01 01:40:00,
2013-05-31 21:41:00,74.4,66.7,29.99,SSW,196,0.0,2.0,77,0.00,,SCT250,0.00,0.00,VWS V14.01,2013-06-01 01:41:00,
2013-05-31 21:45:00,74.2,66.5,30.00,SSW,204,2.0,3.0,77,0.00,,BKN250,0.00,0.00,VWS V14.01,2013-06-01 01:45:00,
2013-05-31 21:46:00,74.3,66.6,29.99,SSW,204,1.0,3.0,77,0.00,,SCT250,0.00,0.00,VWS V14.01,2013-06-01 01:46:00,
2013-05-31 21:50:00,74.1,66.4,30.00,SW,234,2.0,4.0,77,0.00,,SCT250,0.00,0.00,VWS V14.01,2013-06-01 01:50:00,
2013-05-31 21:55:00,74.0,66.3,30.00,SSW,203,1.0,3.0,77,0.00,,SCT250,0.00,0.00,VWS V14.01,2013-06-01 01:55:00,
2013-05-31 22:00:00,73.9,66.6,30.00,SSW,199,1.0,4.0,78,0.00,,SCT250,0.00,0.00,VWS V14.01,2013-06-01 02:00:00,
2013-05-31 22:05:00,73.8,66.5,30.00,SW,219,3.0,3.0,78,0.00,,SCT250,0.00,0.00,VWS V14.01,2013-06-01 02:05:00,
2013-05-31 22:10:00,73.7,66.4,30.00,SW,222,1.0,4.0,78,0.00,,SCT250,0.00,0.00,VWS V14.01,2013-06-01 02:10:00,
2013-05-31 22:15:00,73.7,66.4,30.00,SW,221,2.0,3.0,78,0.00,,SCT250,0.00,0.00,VWS V14.01,2013-06-01 02:15:00,
2013-05-31 22:20:00,73.7,66.4,30.00,SSW,200,3.0,3.0,78,0.00,,SCT250,0.00,0.00,VWS V14.01,2013-06-01 02:20:00,
2013-05-31 22:25:00,73.7,66.4,30.00,SW,221,2.0,3.0,78,0.00,,SCT250,0.00,0.00,VWS V14.01,2013-06-01 02:25:00,
2013-05-31 22:30:00,73.6,66.3,30.00,SW,221,1.0,3.0,78,0.00,,SCT250,0.00,0.00,VWS V14.01,2013-06-01 02:30:00,
2013-05-31 22:35:00,73.6,66.3,30.00,SSW,213,1.0,7.0,78,0.00,,SCT250,0.00,0.00,VWS V14.01,2013-06-01 02:35:00,
2013-05-31 22:40:00,73.6,66.3,30.00,SW,215,1.0,3.0,78,0.00,,SCT250,0.00,0.00,VWS V14.01,2013-06-01 02:40:00,
2013-05-31 22:45:00,73.6,66.3,30.00,SW,219,3.0,4.0,78,0.00,,SCT250,0.00,0.00,VWS V14.01,2013-06-01 02:45:00,
2013-05-31 22:50:00,73.6,66.3,30.01,WSW,240,1.0,5.0,78,0.00,,SCT250,0.00,0.00,VWS V14.01,2013-06-01 02:50:00,
2013-05-31 22:55:00,73.4,66.5,30.00,WSW,240,1.0,3.0,79,0.00,,SCT250,0.00,0.00,VWS V14.01,2013-06-01 02:55:00,
2013-05-31 23:00:00,73.4,66.5,30.00,SW,230,3.0,4.0,79,0.00,,SCT250,0.00,0.00,VWS V14.01,2013-06-01 03:00:00,
2013-05-31 23:05:00,73.4,66.1,30.00,SW,226,2.0,5.0,78,0.00,,SCT250,0.00,0.00,VWS V14.01,2013-06-01 03:05:00,
2013-05-31 23:10:00,73.4,66.5,30.00,SSW,205,1.0,4.0,79,0.00,,SCT250,0.00,0.00,VWS V14.01,2013-06-01 03:10:00,
2013-05-31 23:15:00,73.5,66.2,30.00,SSW,199,5.0,5.0,78,0.00,,SCT250,0.00,0.00,VWS V14.01,2013-06-01 03:15:00,
2013-05-31 23:20:00,73.5,66.2,30.01,South,183,2.0,2.0,78,0.00,,SCT250,0.00,0.00,VWS V14.01,2013-06-01 03:20:00,
2013-05-31 23:25:00,73.3,66.4,30.00,South,183,1.0,2.0,79,0.00,,SCT250,0.00,0.00,VWS V14.01,2013-06-01 03:25:00,
2013-05-31 23:30:00,73.2,66.3,30.00,WSW,238,1.0,4.0,79,0.00,,SCT250,0.00,0.00,VWS V14.01,2013-06-01 03:30:00,
2013-05-31 23:35:00,73.1,66.2,30.00,SW,227,3.0,3.0,79,0.00,,SCT250,0.00,0.00,VWS V14.01,2013-06-01 03:35:00,
2013-05-31 23:40:00,73.0,66.1,30.00,SW,227,1.0,3.0,79,0.00,,SCT250,0.00,0.00,VWS V14.01,2013-06-01 03:40:00,
2013-05-31 23:45:00,72.9,66.0,30.00,SW,227,1.0,3.0,79,0.00,,SCT250,0.00,0.00,VWS V14.01,2013-06-01 03:45:00,
2013-05-31 23:50:00,72.6,66.1,30.00,SW,227,1.0,3.0,80,0.00,,SCT250,0.00,0.00,VWS V14.01,2013-06-01 03:50:00,
2013-05-31 23:55:00,72.3,65.8,30.00,SW,226,2.0,3.0,80,0.00,,SCT250,0.00,0.00,VWS V14.01,2013-06-01 03:55:00,